GFSMW_sfc_thetae_021.txt.gz
Theta_e
316 317 319 318 326 326 326 328 325 324 324 320 320 319 315 315 310 309 310 309 309 309 307 306 306 305 303 302 302 299 298 297 297 294 294 294 295 295 294 294 295 295 297
316 319 320 321 327 326 326 326 326 325 324 323 324 319 314 312 309 309 308 308 308 307 307 305 304 303 302 300 299 298 296 297 295 292 291 288 290 292 294 292 294 291 293
316 318 321 321 326 325 325 325 324 325 324 324 316 313 310 308 307 306 305 307 308 307 304 301 299 299 300 298 297 297 296 293 294 294 291 287 284 287 290 290 290 289 289
317 320 321 321 323 323 323 325 325 325 326 320 314 310 307 305 306 306 306 302 300 299 299 299 298 296 296 295 297 299 296 294 291 293 295 290 289 283 282 286 287 288 289
317 318 320 322 323 325 324 323 323 319 315 314 313 309 306 304 302 299 297 296 297 298 297 298 296 295 296 296 296 296 295 294 293 291 290 288 287 286 283 280 283 286 287
315 318 322 323 323 320 318 315 311 310 309 308 306 304 302 297 296 294 294 294 295 296 296 296 295 295 296 296 296 295 294 294 293 292 290 288 286 285 283 281 281 282 284
315 316 315 313 312 311 311 308 309 307 306 303 299 298 297 296 294 293 294 294 293 293 292 294 294 294 296 297 296 294 294 293 292 291 290 289 288 288 286 284 282 281 283
314 312 311 310 309 309 308 307 307 306 304 301 298 297 296 295 295 295 294 294 293 292 293 293 293 294 295 296 295 294 294 294 292 291 290 289 288 288 287 284 282 279 280
308 309 309 309 308 308 308 306 306 304 300 298 297 296 296 296 296 295 295 293 293 294 293 293 293 293 293 295 295 294 293 293 292 291 289 289 289 288 287 286 284 282 276
307 308 308 308 309 309 308 306 305 302 299 298 297 297 296 297 296 296 295 294 293 293 293 292 293 292 292 292 295 294 294 291 290 292 289 290 290 289 287 285 285 284 280
307 307 307 309 310 309 307 306 302 299 297 297 297 296 296 298 297 298 294 295 293 294 293 293 292 292 292 292 291 290 291 290 290 291 289 288 289 286 285 284 283 281 280
307 307 307 308 308 308 307 306 300 299 298 297 298 297 298 299 297 296 296 293 293 293 293 293 293 293 292 290 290 290 291 291 289 289 288 287 289 285 283 281 279 278 278
307 307 306 308 308 307 307 305 301 299 298 298 297 297 299 299 297 296 295 294 293 292 293 293 293 293 291 290 291 290 290 288 289 288 287 287 285 281 279 279 278 277 280
308 307 306 307 307 307 306 304 301 300 299 297 296 297 298 298 296 295 295 295 294 293 292 293 293 293 292 292 291 289 287 287 287 287 286 285 282 280 278 278 277 278 276
305 306 306 306 306 306 304 304 302 300 298 297 297 297 299 297 296 295 295 294 294 293 293 292 292 293 292 291 288 287 286 284 284 284 284 283 283 285 281 279 277 276 276
302 305 307 307 306 306 304 304 301 300 299 298 298 298 297 296 295 294 293 293 294 293 293 292 292 291 292 288 288 286 283 284 283 282 282 281 283 284 284 283 282 280 276
302 304 306 307 305 305 305 301 300 301 299 298 298 298 295 294 293 293 293 292 291 291 292 291 291 290 288 288 287 285 281 282 282 281 280 281 282 280 278 279 280 279 281
303 303 304 305 305 304 303 300 300 300 298 296 294 294 293 292 292 292 291 291 291 291 290 290 290 289 287 287 286 284 280 281 281 280 280 279 277 278 278 277 276 276 277
301 302 303 305 304 302 301 299 298 296 295 292 292 292 293 292 292 291 290 291 290 290 290 291 289 287 285 286 285 282 280 281 281 282 281 281 278 280 280 277 276 275 276
299 296 296 294 295 296 297 294 292 292 291 292 292 292 292 292 291 291 290 290 289 289 289 289 288 287 283 286 285 282 278 279 279 280 280 282 278 280 280 276 274 273 274
294 293 293 292 291 293 293 291 290 290 292 292 292 292 292 292 291 290 290 289 288 288 286 285 284 284 282 282 285 284 279 279 279 278 278 278 281 280 282 281 275 274 276
292 291 289 289 292 292 292 290 290 292 293 293 292 292 292 291 291 289 288 287 286 284 284 283 283 281 282 284 285 285 283 282 276 278 278 278 283 282 282 281 280 280 279
289 290 290 290 291 292 292 290 291 292 292 291 290 290 290 290 289 287 285 284 284 281 282 282 279 281 283 281 285 285 284 283 277 277 279 282 283 282 281 282 282 278 274
289 291 290 289 288 290 290 291 290 290 289 287 287 288 287 287 287 286 286 284 280 279 281 281 282 282 282 280 280 281 282 281 279 278 278 277 278 275 276 276 278 277 274
290 290 289 289 289 290 289 289 289 288 286 286 286 286 283 284 285 285 284 283 283 283 280 280 281 279 283 285 282 281 279 277 278 272 273 273 272 274 276 274 275 274 274
289 289 288 287 288 288 288 288 288 287 286 285 283 282 282 282 284 284 283 286 286 286 287 286 282 281 284 286 286 286 284 283 282 278 272 269 268 270 273 272 272 270 271

GFSMW_sfc_thetae_024.txt.gz
Theta_e
315 319 324 324 323 323 323 324 322 322 321 320 319 316 313 313 311 307 308 307 307 306 305 304 303 302 301 299 299 297 295 295 295 292 292 292 292 292 292 292 291 292 293
312 314 317 322 322 323 323 324 323 322 321 320 319 317 313 309 307 306 306 306 306 305 305 303 302 301 299 298 297 296 294 294 293 291 289 286 289 290 291 290 290 288 290
312 315 317 321 322 322 323 323 323 322 321 320 318 311 308 306 304 303 303 304 306 302 300 298 297 296 296 295 295 295 294 292 292 291 290 285 283 285 288 287 287 287 287
314 317 319 321 322 322 322 323 324 323 322 319 315 313 309 306 303 303 303 300 298 298 298 297 295 295 294 294 294 297 294 292 290 291 293 289 288 282 281 285 285 287 287
314 316 320 322 323 322 323 323 322 322 322 315 313 310 304 303 303 300 295 295 295 296 296 295 294 294 295 294 295 294 293 293 291 290 289 287 286 284 282 279 282 284 286
313 317 321 324 322 322 322 319 318 313 314 312 308 306 301 298 297 294 293 294 295 294 294 295 293 293 294 295 294 293 293 292 291 291 289 287 285 284 282 280 280 281 283
314 317 318 320 320 319 318 316 310 304 303 302 301 300 297 297 295 293 293 293 294 294 292 292 292 292 294 296 294 293 293 292 290 290 289 288 287 286 285 282 280 280 282
316 317 315 313 313 312 310 309 307 302 299 298 297 297 296 295 294 295 295 294 294 293 294 294 293 292 292 294 294 293 292 292 290 290 289 288 288 287 286 284 281 278 279
312 312 311 310 309 306 306 306 305 302 299 297 296 296 295 296 296 296 295 295 295 295 292 292 292 292 292 291 292 292 292 291 291 290 289 288 287 287 286 286 284 282 274
309 310 310 309 308 307 306 305 304 300 298 297 296 297 297 296 296 296 295 295 295 295 293 293 292 291 291 291 292 292 292 291 289 290 289 288 290 288 287 285 285 283 281
309 309 310 309 308 307 306 305 302 298 296 296 295 295 296 297 297 296 296 295 294 294 294 293 291 292 292 291 290 289 289 289 289 289 288 289 288 286 285 283 283 281 280
308 309 309 308 307 307 306 304 301 299 297 297 296 296 296 297 297 296 295 295 295 294 293 292 291 292 292 290 289 289 289 289 287 287 287 287 289 284 283 280 278 278 277
306 307 306 307 307 307 307 304 301 299 297 297 296 295 296 296 296 295 294 293 293 292 291 291 292 292 291 290 290 290 289 289 288 288 287 287 285 281 279 279 277 277 279
306 304 305 306 307 308 307 304 300 299 298 297 296 295 296 296 295 293 293 292 292 291 290 292 292 292 292 291 291 289 287 286 286 286 285 284 282 280 279 278 277 277 276
304 303 303 305 306 305 304 302 300 300 298 296 295 295 296 296 294 292 292 292 293 292 292 291 291 292 291 292 290 288 286 284 283 283 283 282 283 285 281 278 277 276 275
301 304 304 304 304 304 304 304 301 299 298 296 296 296 296 294 294 293 291 291 292 293 292 292 291 290 291 290 290 287 284 284 283 282 281 281 283 284 284 283 282 279 275
301 304 304 304 304 304 305 303 301 299 297 297 298 296 295 294 293 291 290 290 291 291 291 290 290 289 290 289 289 287 282 282 281 281 280 280 282 281 279 280 279 278 279
300 301 303 304 303 303 304 300 298 297 297 296 294 293 293 291 291 291 291 291 291 290 288 289 290 289 289 288 288 286 281 281 281 280 280 279 278 278 278 277 276 276 276
295 293 293 296 298 300 298 297 295 293 291 290 291 292 291 291 291 291 290 291 290 289 288 289 288 288 286 288 287 283 279 280 281 281 281 280 278 280 282 277 276 275 276
292 291 292 292 291 291 292 291 290 290 290 291 290 291 292 292 291 291 291 290 289 288 288 287 287 288 285 287 286 283 279 279 279 280 280 282 279 281 281 277 275 273 275
290 291 290 289 290 291 292 290 290 289 291 292 293 293 293 292 292 290 290 288 287 285 284 284 284 283 283 283 287 286 280 280 279 279 278 278 282 282 282 282 276 274 276
290 290 290 289 291 292 291 290 290 292 293 293 293 293 292 291 290 288 286 286 284 282 282 279 281 281 282 284 286 286 284 282 278 279 279 278 282 282 283 281 281 282 279
289 290 290 289 291 292 292 290 291 292 292 292 290 288 288 288 287 285 285 283 282 279 280 280 277 280 280 281 285 286 285 284 278 279 279 281 282 283 281 282 282 278 275
289 289 289 288 288 290 289 289 289 288 287 286 286 286 285 285 285 285 284 282 279 279 281 281 280 279 280 281 283 283 284 283 280 278 279 277 278 274 275 275 278 276 275
288 288 287 288 288 287 287 288 288 287 285 285 284 284 281 283 283 283 283 283 282 282 282 281 280 277 277 281 284 282 280 282 281 277 273 272 272 274 275 274 275 274 273
286 286 286 286 286 287 286 287 287 286 285 284 283 281 281 280 282 282 283 285 286 286 286 286 283 283 284 285 286 287 285 284 282 278 274 274 272 273 274 272 272 271 271

GFSMW_sfc_thetae_030.txt.gz
Theta_e
319 318 318 320 323 322 321 321 318 317 317 316 313 310 310 310 308 307 307 308 305 304 302 301 300 299 297 296 296 295 294 293 292 292 291 291 290 289 289 289 289 290 291
317 318 317 320 322 322 322 321 320 318 318 318 314 313 311 309 306 305 305 305 304 302 302 300 298 297 296 295 295 294 293 292 291 290 288 286 289 289 289 288 288 288 289
315 317 319 320 321 321 321 321 320 318 319 318 314 308 308 304 302 301 301 302 302 301 298 296 294 294 293 293 293 294 293 291 290 290 289 286 284 285 288 287 287 287 287
313 315 318 319 319 320 321 322 320 319 318 319 315 311 310 306 303 301 300 296 297 296 295 295 295 294 294 293 295 295 294 291 290 291 291 288 288 285 284 286 286 287 287
309 312 314 319 320 317 319 320 320 319 318 319 317 312 309 307 304 300 294 294 294 294 295 295 295 294 295 296 296 294 292 292 291 290 289 287 286 284 283 281 283 285 286
307 309 311 315 316 316 317 319 321 320 319 317 314 311 306 305 302 297 293 295 292 293 293 294 293 295 297 295 294 293 292 291 290 291 289 288 286 284 282 281 281 281 284
306 309 311 313 316 316 318 319 321 319 319 317 314 310 309 306 302 296 294 292 292 293 292 293 294 295 297 296 294 292 292 291 290 289 289 288 287 287 285 283 282 281 282
307 311 314 315 316 317 317 320 320 319 316 316 312 311 308 306 303 296 294 294 294 294 294 295 293 295 296 294 294 293 291 291 290 289 288 288 288 287 285 284 282 280 281
305 310 315 317 317 317 317 319 317 317 313 311 308 306 304 302 298 298 295 294 295 295 295 295 295 294 292 293 293 293 292 291 289 289 288 287 288 287 286 285 284 282 281
306 310 314 316 317 318 319 317 314 311 309 306 304 302 301 301 299 296 295 296 296 295 295 295 294 293 292 292 292 291 291 290 289 289 287 287 287 286 286 285 285 284 282
307 310 313 315 314 314 309 310 306 303 301 301 300 298 298 298 299 298 297 295 295 296 295 294 293 292 292 292 291 291 290 288 287 287 287 287 287 286 285 284 284 282 281
307 308 310 309 308 309 307 307 302 299 298 298 298 298 298 298 296 295 295 295 295 295 294 294 292 292 292 291 290 288 288 287 287 287 286 286 288 285 284 283 281 280 279
306 307 307 307 307 307 306 305 302 299 299 298 299 297 296 294 293 295 295 295 294 293 292 292 291 291 291 290 289 288 288 287 287 286 286 286 285 283 282 281 279 278 279
305 305 305 305 304 304 305 304 301 298 299 297 297 295 294 294 294 295 294 294 293 292 292 292 292 292 292 291 290 288 287 286 286 286 285 285 284 283 281 280 279 278 277
303 303 303 303 304 305 304 303 300 299 299 298 296 294 294 295 295 296 294 293 293 292 292 292 292 292 292 290 289 288 286 285 284 285 284 284 285 286 282 279 278 277 276
301 301 301 302 303 304 303 303 300 299 299 297 295 297 297 296 294 293 293 293 292 292 292 291 291 291 291 290 290 289 285 284 283 283 282 282 286 286 288 287 283 279 276
295 296 298 300 300 301 302 300 299 298 297 295 296 296 296 294 292 292 292 291 291 291 291 292 291 290 290 290 290 290 285 283 283 282 282 281 281 283 281 285 285 283 282
292 291 291 293 294 298 297 296 295 294 293 293 293 294 293 292 293 292 291 292 292 292 292 291 290 289 288 289 289 289 285 283 282 281 281 280 280 280 280 279 278 278 278
289 288 289 290 290 290 290 290 289 290 290 290 291 292 293 292 292 291 292 292 292 291 290 290 289 287 285 288 288 287 283 281 281 281 281 281 280 282 284 279 277 277 277
288 288 289 289 289 288 289 288 288 288 288 290 291 293 293 292 292 292 292 292 291 290 289 287 286 285 283 286 287 287 280 280 280 280 281 285 281 283 284 280 277 275 277
288 289 288 287 287 288 289 289 290 290 291 292 293 294 295 294 293 292 291 291 290 287 283 283 282 282 283 283 287 287 281 281 281 281 281 281 284 285 285 284 278 276 278
288 288 288 287 288 289 290 289 289 291 292 294 294 293 293 293 292 289 287 285 284 282 282 279 282 281 282 284 285 287 287 284 280 280 281 281 284 285 285 284 282 281 279
286 287 287 287 288 289 289 288 289 290 289 287 286 286 286 286 285 284 283 282 281 279 280 281 281 282 282 282 285 286 286 286 282 281 281 282 283 284 284 284 283 281 279
285 286 286 285 285 286 286 286 286 285 284 283 283 283 283 283 283 282 283 281 279 279 281 281 281 282 282 280 281 281 281 282 283 282 283 280 280 281 282 281 282 282 279
285 285 285 285 283 284 284 284 284 284 283 283 283 282 281 281 281 282 281 281 282 282 282 282 282 281 282 283 284 283 281 280 281 276 279 280 279 279 278 279 279 279 277
285 285 284 284 283 283 283 283 283 282 282 282 281 280 279 278 280 281 280 284 285 285 286 286 285 284 286 286 286 286 286 286 284 280 279 279 278 277 277 277 278 278 277

GFSMW_sfc_thetae_033.txt.gz
Theta_e
319 322 323 323 324 325 325 327 328 329 326 324 323 323 320 320 319 319 319 317 315 313 312 310 310 309 309 307 307 305 304 304 305 303 302 300 300 300 300 301 300 299 299
320 321 322 322 323 324 326 328 328 327 327 326 325 323 320 320 317 315 317 314 314 312 311 310 309 308 306 306 306 305 303 304 304 301 300 297 297 299 298 299 298 299 299
319 321 320 321 323 324 327 328 329 327 327 326 323 318 316 315 313 312 312 312 312 311 310 309 307 305 304 303 304 305 303 300 301 301 300 295 294 297 298 297 298 298 298
318 321 322 322 322 325 328 329 328 327 327 325 323 319 318 315 315 312 312 310 310 308 307 305 304 304 304 303 303 303 301 302 299 301 300 301 299 294 292 297 298 297 296
316 319 322 324 325 326 327 329 328 326 326 323 323 321 320 318 313 310 308 305 305 305 303 304 304 304 303 304 304 303 301 302 301 300 300 300 298 297 293 290 293 296 297
314 316 321 324 325 327 327 327 325 325 324 323 323 320 318 313 309 304 303 302 302 302 303 302 303 304 304 303 302 299 300 301 301 300 300 298 296 294 293 291 291 291 294
314 315 315 318 323 323 324 325 323 322 321 321 321 320 315 312 310 303 301 301 300 300 301 302 302 302 302 301 298 299 302 301 300 299 299 299 297 297 295 293 291 290 293
314 315 316 318 320 322 323 325 324 323 320 321 321 319 316 315 310 305 303 302 302 301 301 301 302 302 301 300 302 302 301 301 301 300 299 298 298 298 296 294 292 289 290
310 312 315 317 319 322 322 325 325 324 323 321 321 318 317 315 310 307 307 304 303 300 300 301 298 300 300 298 299 300 300 301 301 300 300 298 298 297 296 295 294 291 287
309 311 314 318 320 322 323 325 325 324 325 322 321 320 318 315 313 309 305 302 302 300 300 300 300 299 296 299 298 299 299 300 300 300 298 297 297 297 296 295 294 293 291
312 312 315 320 321 323 323 323 324 324 322 321 320 318 316 314 310 306 304 303 302 301 299 298 299 295 296 297 297 297 298 298 299 298 296 296 296 295 295 295 294 292 291
312 314 317 319 320 321 321 321 321 320 319 316 313 314 312 309 307 306 305 304 301 300 298 297 295 296 295 296 295 295 296 297 296 295 295 295 294 295 295 294 293 292 291
311 313 315 316 317 317 316 315 314 314 310 309 310 310 307 307 306 305 305 302 300 298 297 296 295 294 296 295 295 295 295 295 295 295 295 295 295 294 294 293 291 291 288
308 312 313 313 313 313 314 315 311 309 307 307 307 306 305 306 305 304 300 299 299 295 295 296 297 297 296 295 294 296 294 294 294 294 294 294 294 293 293 292 291 289 287
307 309 310 312 312 311 311 311 310 306 306 304 304 304 302 302 301 299 298 297 297 296 295 296 295 295 295 295 296 296 295 294 294 294 293 294 294 292 292 290 290 287 286
304 305 306 308 309 310 311 308 307 305 305 304 303 301 301 300 298 297 296 295 294 294 295 295 295 294 295 292 291 291 294 294 293 293 293 293 290 290 288 287 286 287 286
298 300 301 302 304 306 307 307 306 304 303 302 301 300 300 297 296 295 294 292 293 294 295 295 295 294 295 291 290 290 293 294 294 293 293 291 289 288 289 287 287 285 283
295 295 297 298 299 300 300 300 300 300 300 299 298 298 297 295 293 293 293 294 296 295 295 296 295 294 293 290 289 288 292 293 293 293 292 291 291 289 288 287 286 287 286
293 294 294 295 295 295 296 296 295 296 295 295 295 295 295 295 295 293 293 293 294 295 295 294 292 291 293 290 288 288 291 291 291 291 291 290 290 288 285 285 284 285 284
293 293 293 294 293 293 295 294 294 294 293 294 295 296 296 296 295 296 296 295 295 294 292 290 292 292 290 289 287 288 291 289 289 290 289 286 288 286 285 286 285 283 284
292 292 293 292 293 295 295 294 294 294 295 296 297 297 297 296 295 295 293 293 292 292 292 290 291 291 290 290 288 288 289 289 288 288 289 288 285 285 285 285 285 285 285
291 292 292 292 293 295 295 293 292 296 296 294 292 292 291 291 291 292 291 290 290 289 289 288 289 290 289 287 288 287 287 288 288 287 289 289 286 285 286 286 286 284 283
291 292 292 292 292 293 293 290 289 290 290 289 289 289 289 289 289 289 289 289 289 288 287 287 287 288 289 290 287 286 286 286 287 289 288 286 285 285 284 285 285 284 283
290 290 289 288 287 288 288 288 288 289 289 288 287 287 287 287 287 287 287 286 286 285 285 285 285 285 286 287 288 288 289 287 286 286 288 286 285 285 286 285 285 285 285
288 288 287 287 286 286 286 286 287 288 286 285 284 284 284 283 283 283 283 283 284 284 283 283 283 284 283 283 282 282 283 285 286 286 286 286 284 284 283 283 284 284 285
287 287 286 285 284 283 282 283 284 284 283 282 282 281 281 281 281 281 281 282 281 281 281 282 282 283 281 279 280 280 280 280 282 283 283 284 284 283 283 282 282 283 282

GFSMW_sfc_thetae_036.txt.gz
Theta_e
320 323 323 324 323 325 326 327 328 331 333 330 326 326 328 331 332 333 332 330 327 324 323 320 319 318 316 315 314 311 307 308 310 307 307 306 306 305 305 306 306 304 304
319 322 325 324 324 325 326 328 329 331 332 331 327 329 330 331 330 329 328 327 325 323 321 319 317 317 315 314 312 309 308 310 309 305 304 302 303 304 304 304 303 304 303
321 323 324 327 326 325 326 327 330 332 334 333 329 329 330 328 324 323 323 323 322 320 319 319 317 316 314 311 310 308 308 307 307 307 302 299 299 302 303 302 302 302 302
322 324 326 326 328 327 329 329 330 332 334 334 329 326 324 324 325 323 322 319 318 319 317 317 315 314 312 310 308 309 310 308 305 306 304 304 302 296 296 301 302 302 301
321 323 325 328 329 329 329 331 332 332 334 334 332 328 326 328 327 323 320 318 318 317 316 314 311 310 310 309 310 309 307 308 302 303 304 303 302 301 297 294 297 300 300
322 323 326 328 329 330 330 331 331 331 333 331 328 327 326 326 323 320 318 315 315 314 311 308 309 311 309 309 310 307 308 304 305 304 303 300 299 298 297 295 296 296 298
321 322 323 325 328 330 331 331 331 327 330 329 325 326 326 326 320 320 317 312 306 306 306 308 309 308 309 309 308 308 304 305 304 303 302 302 300 300 298 296 295 294 297
321 322 323 325 327 329 332 332 331 326 325 323 325 327 327 326 322 322 312 306 305 305 308 308 309 308 305 306 306 304 303 304 304 303 303 301 301 300 299 297 295 292 294
315 319 323 324 326 327 331 332 331 329 328 324 321 324 324 324 323 322 311 308 309 309 309 308 306 306 305 305 305 302 303 304 305 304 303 301 300 300 300 298 297 294 290
314 316 318 321 325 326 329 331 332 331 330 324 324 324 324 324 324 322 315 313 312 312 308 307 305 303 302 303 303 300 303 304 304 302 301 300 300 299 299 298 297 296 293
316 317 319 321 323 325 328 329 330 331 331 327 327 326 326 325 324 322 317 314 313 311 305 306 304 301 302 301 300 301 302 300 300 301 300 299 299 298 298 298 297 295 295
315 320 321 323 324 325 326 327 329 329 330 331 330 327 326 325 322 318 316 314 311 309 307 306 303 299 300 300 299 299 297 298 298 299 299 298 297 298 298 297 296 295 295
314 318 321 323 324 325 326 327 328 328 329 328 326 325 320 319 318 314 313 311 310 309 308 306 301 298 299 299 300 297 296 297 298 298 298 298 298 297 297 297 295 295 294
310 317 320 321 322 324 324 324 324 325 322 320 320 319 317 314 313 312 311 310 309 308 305 299 298 298 299 298 297 298 298 299 297 297 298 297 297 297 297 296 296 295 293
310 314 318 320 321 321 322 322 320 319 318 317 316 316 315 315 314 313 311 309 306 302 298 296 297 296 297 297 298 298 296 297 296 297 298 298 297 295 295 295 296 295 293
311 313 315 317 317 318 318 317 315 314 315 313 312 310 309 308 307 304 301 299 297 295 295 295 297 297 296 292 292 293 294 297 296 296 297 298 296 294 291 290 290 291 293
308 309 310 311 312 313 315 313 312 312 311 309 308 307 306 304 302 299 297 294 294 296 296 296 297 297 298 293 292 291 292 294 296 296 296 296 295 294 295 290 288 287 286
305 306 307 308 309 309 309 309 309 308 307 306 305 304 303 301 300 298 296 295 296 296 296 296 298 298 297 292 291 290 295 295 295 295 295 295 295 296 295 294 293 292 292
304 304 305 305 306 305 306 305 304 304 302 301 301 301 301 300 299 299 298 298 300 299 299 297 297 296 294 291 291 290 294 293 293 294 294 294 295 292 291 292 291 291 291
302 302 303 303 303 303 304 303 302 301 300 300 300 301 301 300 300 299 299 300 301 297 295 293 292 292 296 292 290 290 293 292 293 293 294 290 291 289 288 291 290 289 290
300 301 302 301 301 302 303 300 300 299 300 300 301 300 300 299 299 298 297 296 297 296 296 294 295 295 294 294 290 289 291 291 292 291 292 293 289 287 287 287 290 290 291
299 300 300 300 301 301 301 299 298 299 299 297 294 292 293 293 294 294 294 294 294 293 292 293 293 294 294 290 290 288 287 288 289 289 292 293 290 288 287 287 286 286 286
299 300 299 298 299 300 299 297 296 295 294 294 293 293 293 293 293 293 293 293 293 291 290 289 289 289 290 290 287 286 285 285 286 288 288 287 286 287 287 286 286 285 288
298 298 296 294 293 294 294 294 294 294 293 292 291 291 290 290 290 290 289 288 287 286 286 286 286 286 287 287 284 284 285 283 283 284 287 286 284 285 286 287 288 288 289
296 296 294 293 292 292 292 293 293 292 290 289 288 288 287 286 286 286 286 285 286 283 283 284 283 283 282 280 280 280 281 282 281 281 284 285 286 285 287 288 287 287 287
295 294 292 291 290 290 289 289 290 290 288 286 285 285 286 286 285 284 285 281 280 280 280 279 280 281 279 277 277 278 278 278 279 281 284 284 285 285 285 287 286 286 285

GFSMW_sfc_thetae_039.txt.gz
Theta_e
319 322 321 322 322 323 322 323 324 327 329 326 324 323 321 326 331 335 333 333 332 330 330 328 325 324 321 319 318 315 312 310 313 310 312 310 309 308 307 307 306 305 305
318 320 322 321 322 323 323 323 324 326 329 329 326 324 325 326 329 332 333 333 332 329 329 327 324 322 319 318 316 314 311 313 313 309 309 306 306 307 307 307 305 306 305
317 319 321 323 323 324 325 326 327 328 331 331 328 326 327 329 328 329 329 331 331 328 326 325 323 321 320 316 316 313 313 311 312 311 307 303 301 304 307 305 305 305 304
320 320 322 323 324 325 329 328 329 329 331 333 329 326 324 325 327 329 328 328 327 325 323 321 322 321 319 316 315 312 314 312 309 311 309 308 305 299 298 304 305 305 303
320 320 322 324 326 327 329 330 329 330 332 333 334 329 326 327 330 328 327 327 323 322 321 321 321 319 316 317 315 313 313 310 309 308 307 306 305 304 299 297 300 303 303
319 320 323 325 325 328 331 332 329 328 330 334 333 331 329 328 329 327 324 323 322 321 321 319 319 316 313 314 312 313 311 311 309 306 306 304 301 301 301 298 298 298 300
319 320 320 322 325 327 330 331 329 329 331 332 333 329 327 328 328 327 324 322 322 320 319 314 310 311 310 312 313 312 307 308 306 307 304 304 304 303 300 298 296 296 298
319 320 320 323 325 328 331 330 330 329 331 331 331 328 325 325 327 329 325 323 322 318 311 308 308 309 312 312 310 306 309 308 307 305 305 304 304 302 301 298 296 293 294
318 320 320 322 325 327 331 334 331 331 331 331 327 327 327 326 328 327 326 324 316 309 307 308 307 310 311 307 307 307 303 305 306 305 306 304 303 302 301 300 298 295 290
316 318 320 322 324 327 329 335 334 332 331 329 330 326 327 329 329 327 324 320 314 311 310 309 309 309 307 307 307 303 305 304 305 306 304 303 302 301 300 298 298 297 294
316 317 319 321 324 326 328 331 333 333 331 330 330 325 326 326 326 326 323 317 314 312 311 311 309 306 306 306 304 302 301 302 304 302 301 301 302 300 299 299 299 297 296
314 319 321 322 323 324 326 328 331 332 332 332 328 326 328 327 325 324 322 319 316 315 313 310 306 305 306 304 300 298 301 300 298 298 299 299 299 299 299 299 298 297 297
313 318 322 323 325 325 326 328 330 330 332 332 327 327 326 325 323 322 320 317 316 313 310 307 305 305 302 300 299 300 299 299 299 299 300 299 299 298 298 299 298 297 296
312 316 320 323 325 327 328 328 329 331 331 330 329 327 321 320 319 316 315 312 312 310 309 307 304 301 299 298 298 299 298 299 298 299 299 299 299 297 298 298 298 297 296
311 313 319 322 324 325 326 327 327 327 326 323 323 321 320 318 315 313 312 311 310 308 302 301 298 299 298 298 297 298 299 299 296 297 299 300 298 296 296 297 298 297 295
312 315 318 321 322 323 324 323 322 321 322 320 319 318 317 316 314 313 311 309 303 301 298 297 296 297 296 293 293 294 299 297 295 295 298 299 297 297 293 293 292 293 295
313 315 317 319 320 320 320 318 317 317 316 313 312 311 310 308 307 304 302 300 299 299 297 298 296 296 296 293 292 292 297 294 293 293 295 297 297 294 297 294 291 290 289
312 313 314 314 315 315 314 314 313 312 311 310 309 308 307 305 303 302 300 299 299 298 296 296 296 298 298 292 292 290 292 294 296 297 296 296 296 296 295 296 295 296 296
312 312 312 311 311 311 311 310 309 308 307 305 305 305 304 303 302 301 300 300 300 299 299 300 298 297 297 292 291 291 296 294 294 294 295 294 294 293 292 293 293 294 294
309 309 309 309 309 308 308 307 305 305 303 304 303 304 304 303 302 300 299 300 299 298 298 297 296 294 297 292 291 291 293 291 292 293 294 291 292 290 289 292 291 290 292
307 308 308 307 307 307 307 304 304 302 303 303 303 303 303 301 300 300 300 299 298 298 297 295 296 295 294 294 290 289 290 289 287 288 289 291 289 289 289 288 290 290 291
305 306 305 305 306 306 305 303 302 303 303 302 300 299 299 297 298 297 296 295 295 294 294 294 294 295 295 288 286 286 285 284 285 285 287 288 286 285 285 287 287 287 286
305 305 304 304 304 305 304 302 301 300 299 298 297 295 295 295 295 295 294 294 293 292 290 289 289 289 290 290 286 284 283 283 283 285 284 283 283 284 285 286 286 286 287
304 304 303 302 301 302 301 300 300 299 297 295 294 294 293 292 292 292 290 290 289 288 287 286 286 286 286 287 283 281 282 282 282 282 283 282 282 283 283 284 286 288 286
303 303 301 299 298 298 297 297 297 296 294 293 292 291 290 289 288 288 287 286 284 283 283 284 283 283 282 280 278 278 279 280 279 279 281 283 284 284 285 286 287 288 288
301 300 299 297 296 295 295 295 295 294 292 289 289 289 288 288 287 287 285 281 282 280 280 279 280 281 278 276 276 277 277 277 278 279 280 281 281 280 280 281 282 284 283

GFSMW_sfc_thetae_042.txt.gz
Theta_e
317 321 318 318 317 318 315 315 314 316 318 320 321 322 319 322 323 328 329 331 330 329 327 326 324 322 319 317 316 312 307 305 307 305 307 305 305 303 302 303 302 301 302
316 317 318 318 319 318 317 319 318 321 324 324 322 322 321 321 324 329 331 330 329 328 327 325 322 321 318 317 313 311 307 308 308 304 303 300 300 302 303 302 302 299 301
316 317 317 319 319 317 318 319 322 323 325 326 325 323 323 322 323 325 328 329 329 328 326 326 322 320 319 314 313 311 308 305 306 306 302 297 295 297 301 301 300 300 299
316 318 318 318 319 320 321 321 322 323 325 327 327 321 319 318 323 325 326 327 329 327 324 323 321 320 318 314 313 313 310 308 305 306 308 305 300 294 292 298 299 300 300
316 317 319 320 320 322 323 323 324 325 326 327 328 325 321 324 327 326 326 325 325 324 324 320 318 318 317 317 312 310 310 310 304 306 305 303 300 299 295 291 295 298 298
317 318 321 322 322 323 324 326 325 326 327 329 328 327 322 324 325 324 322 322 320 320 320 319 318 318 317 313 311 310 310 306 304 303 302 302 299 296 295 293 294 293 295
317 318 318 320 322 323 323 325 326 325 327 329 329 328 327 326 324 323 323 321 318 318 318 318 317 314 312 311 309 310 308 306 302 302 303 301 301 301 299 294 292 291 294
317 318 318 320 321 324 325 325 325 324 326 328 329 329 329 326 326 325 324 321 319 319 319 318 312 310 309 309 309 309 307 305 303 304 301 300 301 301 298 294 292 289 290
317 318 319 320 323 324 326 327 326 326 327 327 330 328 328 327 325 324 325 321 321 318 313 311 309 308 309 308 306 304 304 303 302 302 301 301 302 300 298 297 295 291 286
315 317 318 319 322 325 328 329 328 326 328 329 331 329 328 325 323 325 324 322 319 312 310 309 307 307 307 306 304 304 303 302 301 301 301 300 301 300 298 296 296 295 292
317 317 318 320 321 323 325 329 329 329 328 329 330 328 327 325 326 325 324 323 313 312 310 308 307 306 305 305 303 302 301 300 300 300 299 299 301 299 297 296 296 294 292
315 318 319 320 320 321 324 329 331 330 329 330 329 328 326 324 323 323 322 316 313 312 311 309 307 306 305 304 302 301 298 299 297 298 299 299 300 298 296 295 293 292 291
312 316 319 321 322 322 324 327 329 330 329 329 328 327 322 324 322 322 319 315 313 312 311 309 306 304 304 302 299 298 299 298 298 298 298 298 297 296 294 294 293 293 295
311 313 318 321 323 324 325 326 328 330 329 329 327 324 321 320 316 315 313 313 312 309 307 305 304 302 300 299 298 298 297 296 297 298 297 298 297 295 294 294 292 294 293
311 312 316 321 323 325 326 327 328 327 327 327 322 319 318 317 314 313 312 310 309 308 304 301 299 298 297 298 298 297 296 296 296 297 297 297 296 296 295 295 293 291 291
309 311 314 321 322 324 324 325 322 323 323 321 317 318 317 315 314 312 310 307 304 300 298 297 297 296 296 293 295 296 296 296 296 294 295 296 295 295 293 293 293 292 291
312 314 316 321 322 323 322 320 320 321 319 315 314 315 314 311 308 305 302 299 298 297 296 296 296 295 296 293 293 292 294 294 293 291 293 293 296 294 293 292 291 289 290
313 315 318 319 320 320 319 317 317 314 312 310 309 309 307 304 302 301 299 298 297 296 296 295 296 295 296 292 292 291 292 293 293 293 293 291 290 291 291 290 288 289 290
314 315 316 316 315 314 313 312 310 309 308 307 306 306 304 302 301 299 298 297 297 296 295 296 297 297 294 292 291 291 291 291 289 292 291 290 289 290 290 287 286 287 288
313 312 312 312 311 310 310 308 306 305 304 304 304 304 303 302 300 300 299 299 299 298 297 296 296 294 295 292 291 290 286 285 283 286 287 288 287 288 286 282 281 281 284
310 310 309 308 308 308 307 304 303 302 303 304 303 303 302 300 299 298 299 298 297 296 294 293 293 293 289 287 287 286 283 281 281 281 282 282 286 285 284 284 280 280 282
307 308 306 306 306 307 305 303 301 303 303 302 301 300 299 299 299 298 296 296 294 291 290 288 288 288 285 285 285 283 282 282 280 280 281 281 283 283 283 283 283 284 283
306 307 305 304 305 305 304 301 301 302 300 299 298 297 296 296 295 293 292 292 291 288 285 284 284 284 284 283 282 281 281 281 279 280 281 281 281 281 281 284 285 283 282
305 305 304 303 302 304 303 301 300 300 298 295 294 293 292 291 291 290 289 288 285 284 283 283 282 282 282 278 277 277 277 279 278 278 277 277 279 279 280 280 280 281 282
304 304 303 302 301 301 300 300 299 297 295 293 292 290 289 288 286 283 284 282 280 281 281 280 280 278 277 276 276 276 276 275 277 275 276 277 277 277 277 277 277 278 278
304 303 302 300 299 298 297 297 296 295 292 290 288 286 286 285 286 283 281 283 281 280 280 279 279 278 277 276 276 277 277 277 278 275 274 271 272 273 274 274 274 275 275

GFSMW_sfc_thetae_045.txt.gz
Theta_e
313 311 311 311 311 311 312 311 311 312 311 311 309 310 311 314 318 319 326 321 321 326 325 323 320 318 316 314 312 308 304 301 303 301 302 302 301 300 299 300 299 300 300
313 311 310 311 310 310 311 311 310 311 311 313 313 314 315 319 320 324 324 324 324 325 324 321 319 317 316 313 310 307 304 302 303 301 300 297 298 299 299 298 299 297 298
312 313 310 310 311 309 310 311 311 311 312 314 318 319 317 314 316 320 322 324 327 326 325 322 320 318 316 312 309 308 305 301 303 303 300 295 293 295 298 298 297 296 296
314 314 312 313 313 313 312 313 313 313 314 319 320 317 316 314 315 318 323 325 326 325 324 321 319 319 318 313 311 311 308 308 305 304 305 301 298 293 291 296 297 297 297
313 313 313 315 315 314 314 315 317 316 319 321 321 320 316 316 317 318 321 323 323 323 322 320 318 316 315 313 312 311 310 309 306 304 303 302 300 297 296 290 293 296 296
314 314 316 316 316 315 314 315 316 318 320 322 322 322 318 316 318 319 320 319 321 318 321 319 316 315 314 313 312 310 309 307 307 304 302 301 299 299 296 291 292 291 293
314 314 313 314 315 316 315 315 316 317 319 319 322 322 321 320 320 320 319 319 317 317 317 317 315 315 313 312 309 309 308 307 304 303 302 301 300 300 299 295 291 291 291
312 314 315 315 315 316 317 318 317 317 319 321 321 323 323 322 321 321 320 320 319 319 317 316 314 315 313 310 308 309 307 307 305 302 302 300 301 300 298 295 292 288 288
311 313 316 317 317 317 317 319 320 320 322 322 324 324 324 322 321 320 319 320 318 316 315 314 311 310 310 308 307 307 306 305 303 302 300 300 301 299 298 297 295 291 284
312 312 314 317 318 319 320 320 321 321 322 323 324 324 325 322 321 320 318 316 315 312 312 311 309 307 307 307 306 304 304 303 302 301 300 300 299 300 300 299 296 294 289
307 310 313 316 317 322 323 322 322 322 323 323 324 325 324 322 320 319 318 318 311 310 310 309 306 307 306 305 304 304 302 301 300 300 299 299 300 299 299 298 296 293 292
307 309 312 314 314 319 321 322 323 324 324 324 324 326 324 321 320 320 320 318 313 311 309 308 307 306 305 304 303 302 301 300 298 298 298 298 300 298 296 295 294 291 291
305 310 311 312 313 314 320 322 324 324 325 324 326 323 322 321 321 320 317 312 311 311 310 308 307 305 304 303 302 299 298 298 298 298 298 297 297 294 293 292 291 290 294
305 309 311 313 315 316 318 322 324 325 325 325 325 321 319 319 317 314 313 311 312 309 308 307 305 304 302 300 299 298 297 297 297 298 298 298 297 295 292 292 291 292 292
304 306 311 313 315 316 318 321 321 323 324 324 320 315 313 313 312 312 311 311 310 308 305 303 301 300 298 298 298 297 296 296 295 296 297 297 296 295 294 294 292 289 288
304 305 313 317 319 319 319 318 318 318 321 318 316 315 313 312 312 311 309 307 304 302 300 298 298 296 297 293 294 295 295 295 295 295 294 295 294 293 292 292 292 291 290
304 306 311 318 319 318 318 315 316 316 315 315 315 314 314 312 309 305 302 299 298 297 296 296 296 295 295 293 293 293 295 294 293 293 293 293 294 292 290 288 288 287 289
308 309 315 315 316 316 315 315 314 310 311 310 310 308 305 302 300 299 298 296 295 294 291 292 293 294 295 292 292 290 292 292 293 293 292 288 286 287 286 284 283 283 285
308 310 312 313 312 312 311 310 308 307 306 305 303 302 300 298 296 295 294 293 293 293 292 293 292 291 291 291 291 292 292 291 286 287 286 285 284 287 286 282 280 279 279
309 309 308 308 308 306 307 305 303 303 302 302 301 300 299 297 296 294 294 293 293 293 294 294 295 293 293 290 290 289 283 281 280 281 283 285 284 285 285 280 279 277 278
307 306 306 305 303 304 304 301 299 299 300 301 301 300 299 297 297 296 296 295 295 295 293 290 289 287 285 284 286 284 280 279 279 279 279 279 283 282 282 282 279 279 282
305 304 303 302 301 302 301 298 298 300 300 299 298 297 296 297 297 295 294 294 292 289 286 284 282 282 282 283 283 282 281 281 278 278 278 278 280 281 282 282 283 282 280
302 302 301 300 300 301 300 298 297 298 298 297 296 296 296 296 295 291 289 289 288 284 282 283 281 279 279 278 280 280 280 279 277 278 278 279 280 280 280 281 280 278 277
300 300 300 299 298 300 299 298 298 297 296 295 294 292 289 288 286 287 286 283 281 281 281 281 280 279 276 275 275 276 276 277 277 276 275 275 277 276 276 277 277 277 276
299 300 298 297 296 298 297 297 297 296 293 290 289 287 285 282 282 282 281 279 279 281 279 279 280 277 275 275 276 276 276 273 277 272 271 273 274 275 275 275 275 274 274
299 299 297 296 295 295 295 295 294 292 289 286 285 283 283 281 281 280 279 281 281 281 281 281 279 278 277 277 277 277 277 278 278 273 269 267 266 270 272 272 271 271 271

GFSMW_sfc_thetae_048.txt.gz
Theta_e
309 309 310 310 309 311 313 313 314 313 313 312 311 311 311 313 313 313 315 318 321 324 322 321 320 317 315 314 312 307 303 301 302 301 300 301 300 298 298 299 299 302 305
307 309 309 308 309 310 311 311 311 311 312 312 312 312 312 312 312 313 315 320 319 321 324 322 320 317 314 312 310 306 302 301 302 299 299 297 298 299 298 297 298 297 300
307 307 308 308 308 309 310 310 310 309 310 311 310 309 309 310 311 312 315 319 319 319 323 322 320 317 316 313 311 306 304 303 305 304 301 296 296 294 296 297 297 296 295
311 309 308 308 307 309 310 310 310 310 311 312 310 309 309 308 312 313 317 319 321 322 323 322 319 318 316 313 312 309 305 305 304 304 305 302 299 295 292 296 296 296 295
312 309 308 309 309 309 309 310 310 310 311 311 312 312 314 316 314 314 315 320 320 322 322 321 318 317 319 315 310 308 308 308 307 305 304 302 300 299 295 292 293 295 296
313 313 310 310 310 310 309 309 309 310 311 311 313 315 316 315 312 313 315 317 321 322 321 320 320 319 318 315 311 310 308 308 305 305 304 303 301 298 295 293 294 294 294
310 313 310 311 311 311 309 310 310 310 312 312 314 316 318 316 313 314 316 317 318 317 319 319 318 316 315 312 312 310 308 307 306 305 303 304 302 300 299 297 294 292 293
310 312 313 312 314 312 312 310 311 313 313 314 316 318 318 320 318 317 318 318 319 318 320 319 316 314 315 311 309 309 308 307 306 305 304 303 301 300 299 296 294 289 290
310 312 313 314 314 314 312 312 312 314 314 315 317 318 320 320 320 320 318 319 319 316 315 316 314 313 313 310 307 308 307 306 305 304 302 300 301 300 298 297 295 291 289
310 313 313 314 315 316 315 314 313 313 315 316 318 318 319 320 321 319 318 319 318 316 314 313 313 310 309 309 307 306 306 305 303 302 300 299 300 300 300 299 299 296 292
310 311 314 315 315 316 316 316 316 317 317 318 319 320 321 321 321 321 320 319 317 315 314 313 310 309 308 308 306 305 304 303 300 300 300 299 300 299 299 299 298 295 294
307 311 311 315 315 316 316 316 318 318 319 320 321 321 323 320 320 320 320 318 317 314 313 311 308 308 307 306 304 303 303 301 298 299 299 298 301 298 298 297 295 294 292
305 308 310 312 315 316 317 317 318 318 320 321 321 321 321 320 321 321 323 323 315 312 311 310 308 307 306 304 304 303 301 300 299 299 298 298 298 296 295 293 292 290 292
302 307 308 312 314 313 316 319 319 320 321 321 322 321 322 321 322 322 322 319 314 311 309 309 308 306 305 303 301 299 298 298 298 299 298 297 297 296 294 293 290 291 288
302 304 308 310 311 313 315 316 319 319 322 322 321 321 322 322 320 317 313 311 310 310 308 306 305 303 301 300 298 298 298 297 297 297 297 297 297 295 293 291 290 288 287
303 303 309 311 314 317 318 318 318 320 322 321 321 322 318 317 314 313 312 309 307 306 304 303 300 298 298 293 294 296 296 296 295 294 295 295 295 294 291 289 289 287 283
301 302 309 314 316 318 317 316 317 320 321 322 319 315 315 314 312 310 307 304 303 302 299 298 297 296 296 293 293 293 295 294 294 293 293 294 292 288 286 286 285 285 286
302 302 310 314 315 315 314 313 314 314 315 315 314 313 310 308 306 305 302 300 300 299 297 296 296 296 295 292 292 291 292 292 292 292 288 287 284 285 284 282 280 280 280
303 306 312 313 313 314 313 310 310 310 309 308 307 306 305 302 301 299 299 297 295 294 294 294 294 293 292 291 290 292 291 289 287 286 285 284 282 284 285 280 279 278 279
308 310 310 310 311 309 308 306 304 304 302 302 302 302 300 298 295 293 292 293 293 292 292 290 290 290 290 290 291 289 286 282 280 281 281 283 282 283 282 279 277 277 278
308 308 310 309 306 306 306 303 302 300 300 300 298 297 296 295 294 293 292 292 292 292 290 288 286 286 287 287 287 285 280 280 280 279 279 279 281 281 282 283 279 279 278
304 305 304 303 301 303 303 300 298 299 299 298 297 296 295 295 295 293 293 293 293 288 285 283 281 280 281 283 283 283 281 280 279 278 278 278 280 281 281 280 280 279 278
302 302 301 298 298 299 300 297 296 297 297 296 295 295 295 295 294 293 291 290 288 286 282 281 278 277 277 278 281 280 280 279 277 278 278 278 279 279 279 279 278 277 275
299 299 299 297 295 297 297 297 297 297 296 294 293 292 290 286 286 286 286 285 282 282 283 281 278 277 276 276 277 277 277 277 277 277 277 276 277 276 277 277 277 276 274
299 299 298 296 295 296 295 296 296 295 292 290 286 283 283 282 280 279 280 280 281 281 281 280 280 276 275 276 277 277 277 276 277 275 273 274 274 274 274 274 274 273 272
298 297 295 294 294 294 294 293 292 291 287 284 282 281 280 280 279 278 278 282 282 283 282 281 279 278 278 278 277 277 277 278 278 274 271 268 266 269 271 271 270 270 269

GFSMW_sfc_thetae_051.txt.gz
Theta_e
308 308 310 312 312 313 313 315 314 315 315 314 314 313 313 313 313 313 316 317 318 322 321 319 318 315 314 312 311 306 304 301 300 300 299 299 299 298 297 299 301 303 304
306 307 307 310 310 312 312 314 314 314 315 316 316 315 314 313 313 313 314 316 318 318 320 319 318 316 313 312 310 306 302 301 301 299 298 297 299 298 298 296 298 298 302
306 306 307 308 307 309 308 312 312 312 312 313 314 312 312 311 309 311 311 313 317 317 319 320 318 316 314 312 310 307 304 301 303 302 301 296 295 297 298 298 298 297 296
309 307 306 305 306 307 309 310 310 310 309 311 310 308 309 308 310 309 310 311 315 317 317 319 319 317 315 313 312 311 307 306 300 301 303 302 300 296 294 297 299 297 295
310 307 307 307 307 308 308 309 310 310 309 309 308 306 306 307 308 309 309 311 315 317 320 319 318 318 316 315 313 310 308 308 306 304 301 302 299 300 297 295 297 297 296
311 309 309 308 307 307 307 308 309 309 309 309 309 308 308 309 309 310 311 313 315 317 318 319 318 317 317 316 314 313 310 308 307 306 305 303 301 296 297 295 295 295 297
311 310 307 307 307 306 307 308 308 308 309 309 309 310 309 311 312 312 312 313 314 316 318 317 316 316 317 317 317 312 310 308 307 306 303 305 303 302 300 297 294 294 294
311 311 310 308 308 308 307 307 308 308 309 309 309 310 312 314 315 315 314 313 314 316 318 319 319 319 318 319 316 314 312 310 308 306 306 305 304 302 299 297 295 291 288
306 311 312 309 309 309 309 307 308 308 309 309 310 310 311 313 315 317 316 315 315 316 315 319 318 318 316 315 311 311 308 308 307 306 305 303 302 300 297 297 296 293 288
305 308 312 312 311 312 312 310 309 309 310 310 311 311 312 315 316 317 318 316 318 316 314 316 315 314 313 311 308 306 308 307 305 305 303 300 300 300 300 299 299 297 294
308 308 310 313 313 314 313 312 310 311 312 313 313 312 313 316 317 318 318 319 317 317 316 315 315 313 310 309 307 306 306 305 304 302 301 300 300 298 299 297 298 296 295
308 309 311 313 313 313 314 313 312 311 311 313 315 315 315 317 317 318 319 319 319 317 317 316 315 313 311 309 307 305 305 304 302 300 300 299 300 299 298 297 295 294 293
302 306 309 312 312 313 314 314 314 313 313 313 314 315 316 317 318 319 320 320 320 319 318 315 312 311 309 308 306 305 303 302 301 300 299 299 299 297 295 294 293 292 293
302 304 306 309 312 313 314 314 315 316 315 315 315 315 316 318 320 321 320 320 320 319 313 311 311 311 308 307 305 305 302 300 299 300 299 299 298 296 294 294 293 292 290
300 303 305 308 310 312 314 315 315 315 317 316 317 316 317 319 320 319 320 321 319 316 312 309 309 306 306 304 304 301 299 298 298 298 298 297 297 295 294 293 290 287 288
302 301 307 308 309 311 313 314 316 316 317 316 317 318 319 319 318 319 320 316 312 312 310 309 307 304 303 295 295 297 298 298 297 296 296 296 296 292 290 290 288 285 281
303 302 302 309 310 311 312 312 314 315 317 317 318 318 319 319 318 316 312 311 309 306 304 302 303 301 298 293 294 294 297 296 295 295 294 293 291 288 287 286 284 284 284
303 301 301 308 312 313 313 312 315 316 316 317 317 318 318 317 312 310 308 304 303 301 300 299 298 299 296 292 292 291 294 294 293 292 291 287 285 284 283 281 280 280 280
304 303 300 308 311 312 311 311 315 315 315 315 313 313 312 308 307 304 302 300 299 298 298 297 298 296 293 291 291 292 292 289 286 286 285 285 283 284 284 280 278 279 280
300 304 308 310 311 309 311 310 311 312 311 309 308 307 306 305 302 300 298 298 297 295 294 292 293 292 292 290 290 290 287 284 282 282 282 283 282 282 281 279 278 278 278
305 307 309 310 309 307 308 305 304 305 305 305 303 302 301 299 297 295 294 294 293 292 288 285 286 288 289 289 289 288 285 283 281 280 278 278 280 281 282 282 279 278 277
305 307 306 303 303 305 305 301 299 299 299 297 296 296 295 295 294 294 293 293 290 287 284 282 281 282 283 284 284 284 283 282 279 279 278 278 280 281 281 279 279 278 277
302 303 302 299 299 301 302 298 296 297 296 295 294 294 294 293 292 291 290 288 286 286 283 282 279 278 278 280 282 281 280 280 278 278 278 279 279 280 279 278 277 276 274
299 298 298 297 295 297 297 296 296 296 295 293 292 290 287 285 285 285 287 285 284 284 283 281 278 277 275 276 276 277 277 278 277 277 277 277 278 277 277 276 275 274 273
298 298 297 295 294 295 295 295 295 295 290 287 286 284 282 281 280 281 283 282 283 285 282 280 278 275 275 276 277 277 277 277 277 276 276 274 274 273 274 273 273 272 272
296 295 294 294 293 292 291 292 293 290 287 283 283 281 280 280 280 279 279 283 283 283 283 282 280 279 279 278 278 278 278 279 278 275 272 270 269 271 271 270 270 270 270

GFSMW_sfc_thetae_054.txt.gz
Theta_e
308 308 309 310 312 313 315 315 316 317 316 316 316 315 314 313 313 316 319 321 322 323 320 319 318 316 313 313 310 307 304 302 302 300 300 300 299 299 298 300 304 305 306
304 307 307 311 310 312 314 315 315 316 317 316 317 318 316 315 314 313 315 318 319 321 321 319 317 315 313 311 309 306 303 303 301 299 298 297 299 300 300 298 300 301 303
304 305 306 309 310 311 311 314 314 315 316 317 316 314 315 313 312 312 311 314 317 317 319 319 317 315 313 311 309 307 304 302 301 302 302 296 296 297 298 298 297 298 299
307 305 305 307 308 310 310 312 313 313 314 316 314 314 313 311 313 312 311 312 316 317 317 318 318 316 314 312 311 310 306 305 303 304 304 302 300 297 296 297 300 299 299
308 306 306 306 308 307 308 307 311 312 312 312 313 314 314 314 313 310 310 311 312 316 317 315 315 316 315 314 313 311 308 308 307 305 303 302 300 298 298 297 297 297 299
309 308 307 306 305 306 308 307 308 309 309 308 309 309 310 308 308 308 308 308 310 311 314 315 315 315 315 313 312 311 310 309 309 308 307 303 301 299 298 297 297 296 298
308 308 305 305 305 305 306 308 308 308 309 308 307 307 307 308 307 308 308 308 309 310 312 312 313 313 314 314 314 313 313 311 310 309 308 307 305 304 301 299 297 296 296
309 309 308 306 306 306 306 307 308 308 309 308 308 308 308 308 309 310 310 310 311 311 312 314 315 314 315 315 316 316 314 313 311 310 309 307 305 303 301 299 297 292 292
306 310 310 308 307 307 306 306 307 308 308 308 309 308 309 309 309 310 312 313 312 313 312 314 316 317 318 317 317 317 315 312 311 310 307 306 305 303 301 298 298 296 291
304 308 311 310 309 309 308 308 308 307 308 308 309 309 309 309 310 311 312 313 314 312 312 312 314 316 318 318 318 316 313 309 307 308 306 304 302 301 298 298 298 298 295
302 304 310 312 310 310 309 309 308 308 308 309 309 309 309 309 310 311 313 314 314 313 314 313 314 315 315 315 313 314 311 309 307 306 305 303 300 299 299 299 298 297 296
305 304 305 310 310 309 310 310 309 308 309 310 310 309 310 311 310 311 314 315 316 317 317 317 316 316 314 312 311 310 308 307 304 303 302 300 300 299 299 298 297 296 295
301 304 305 307 311 310 311 311 311 309 310 310 310 311 311 311 311 313 315 317 317 317 317 318 316 316 314 312 311 311 309 307 305 302 301 300 300 298 297 296 294 293 293
299 302 305 308 310 311 312 313 312 312 311 310 310 310 311 312 313 314 315 316 318 317 318 316 317 316 314 312 311 309 307 305 303 303 302 300 300 298 296 294 293 292 291
299 300 303 306 310 310 311 313 313 313 313 311 310 310 311 312 313 314 316 317 318 318 318 318 317 314 312 309 308 307 305 303 301 300 300 300 299 296 295 294 291 290 288
300 301 301 304 305 310 311 312 313 313 314 313 312 312 312 312 312 314 316 317 318 318 319 316 314 310 308 300 298 303 302 301 300 297 297 297 295 293 292 291 289 288 285
301 301 301 303 307 308 311 311 312 313 313 313 314 314 314 313 314 315 317 318 318 317 312 310 309 308 308 298 295 295 299 298 297 296 295 294 291 289 287 286 286 284 285
301 301 302 301 305 308 310 311 311 312 313 313 313 313 314 315 315 317 317 316 311 309 307 303 304 301 297 294 293 293 296 295 295 294 292 288 286 285 284 283 281 280 280
300 301 301 300 302 307 309 310 310 311 311 313 313 313 313 314 312 310 307 306 302 301 300 299 298 297 293 292 292 293 292 289 287 287 287 285 284 285 285 281 280 279 280
299 300 299 303 306 308 310 311 312 312 312 312 310 310 309 307 305 302 300 299 299 296 295 293 295 292 291 291 291 290 288 284 283 283 283 284 283 283 282 280 279 279 278
301 302 305 306 308 307 309 310 312 309 305 305 305 305 304 301 298 296 296 296 294 290 288 287 287 289 290 289 289 289 286 283 282 280 280 280 281 282 283 282 280 278 277
303 305 304 303 302 305 305 304 302 302 302 301 299 297 296 296 295 294 293 291 289 286 284 283 282 283 283 285 286 286 284 284 281 280 279 280 282 282 282 280 279 278 276
300 300 299 298 299 301 302 297 295 298 298 296 295 294 293 293 293 291 290 288 287 285 284 283 280 279 280 281 282 283 282 281 279 279 279 280 281 281 279 279 278 276 274
299 299 298 296 294 296 297 296 296 296 296 292 291 290 288 287 287 287 287 287 286 284 283 281 279 278 278 278 279 279 278 279 278 278 278 278 278 277 277 276 275 274 273
297 297 295 293 292 294 294 295 296 293 288 287 285 285 284 284 282 282 282 283 284 285 283 282 280 277 276 277 278 278 277 278 277 277 276 275 275 274 274 274 273 272 272
292 291 289 288 287 287 287 289 290 289 287 284 283 282 282 282 281 281 280 284 284 283 282 281 280 279 279 280 280 279 279 279 278 276 273 271 271 272 272 271 270 271 270

GFSMW_sfc_thetae_057.txt.gz
Theta_e
313 314 315 317 316 317 318 317 318 318 319 318 318 318 318 319 322 323 324 324 324 323 323 323 322 321 320 320 319 317 314 311 310 307 307 307 308 309 309 310 312 313 314
311 312 314 315 315 315 316 317 318 319 319 319 319 321 318 316 322 324 324 324 324 323 324 323 323 322 321 321 320 318 315 314 310 309 309 307 308 309 309 309 308 312 311
310 310 310 313 314 314 316 316 317 318 319 321 320 319 318 315 315 317 320 322 324 325 325 325 325 323 323 322 321 319 317 313 311 312 313 307 307 309 310 309 307 306 308
312 311 309 310 312 315 317 318 318 317 318 319 319 316 316 312 317 316 315 317 320 321 324 323 323 322 322 321 321 320 318 317 314 310 310 312 311 307 306 303 309 308 304
312 311 310 311 313 315 314 317 317 316 317 318 320 317 314 316 317 315 313 316 318 320 319 320 321 323 323 324 322 320 317 318 316 314 312 310 305 306 308 306 304 305 303
312 313 313 313 312 314 314 315 317 314 315 316 317 317 315 314 312 313 312 312 313 316 317 317 317 322 324 324 324 323 321 319 318 317 312 307 304 304 304 305 307 307 307
312 313 311 310 310 309 311 313 315 315 315 315 317 317 316 316 314 313 313 314 312 314 316 319 319 322 323 323 324 323 322 321 320 319 315 309 308 309 306 305 304 307 306
312 313 313 312 311 310 311 312 313 314 315 314 314 316 318 318 318 318 317 317 315 316 320 319 320 321 322 322 323 324 323 322 321 320 315 312 312 314 310 309 302 297 298
311 313 314 313 313 312 312 312 313 314 315 315 315 315 315 316 316 318 318 318 319 318 318 319 320 321 321 322 322 323 322 321 320 317 316 314 314 313 309 310 308 307 300
310 313 314 313 314 314 313 313 314 313 315 315 316 315 315 315 316 317 317 317 319 319 319 319 320 321 321 322 322 323 322 319 318 317 315 314 313 310 308 307 308 306 305
310 311 315 315 314 314 313 312 313 313 314 315 315 316 315 316 316 316 317 317 319 319 318 318 318 319 320 322 323 322 320 317 316 318 316 318 315 309 305 305 305 301 303
309 311 313 316 315 313 313 312 312 313 314 315 315 315 316 316 316 316 317 318 318 320 319 320 319 320 321 320 321 319 318 316 314 314 312 313 309 309 306 301 301 301 303
305 310 309 313 315 314 314 313 313 314 314 314 314 315 314 314 313 313 314 315 316 317 320 321 321 319 319 317 315 317 316 314 313 312 310 310 307 304 304 301 302 300 296
305 306 310 311 314 315 314 314 315 315 315 314 314 314 314 314 314 315 315 315 316 316 318 319 320 321 321 318 316 314 314 313 311 310 310 308 304 303 301 300 297 294 296
306 305 306 311 313 314 316 316 316 316 316 314 314 314 315 316 316 316 317 317 317 316 318 319 318 320 320 319 319 315 313 311 308 307 306 306 303 299 299 297 295 293 292
305 307 307 307 310 313 314 316 316 317 317 315 314 315 316 316 316 317 317 318 318 319 319 320 318 318 318 305 301 308 312 310 308 303 302 300 298 295 293 293 292 294 291
305 306 306 308 309 311 314 315 317 318 317 316 316 316 316 315 315 316 316 317 318 320 320 319 319 318 319 300 299 299 309 306 303 299 298 296 294 291 289 288 287 286 285
304 306 307 309 310 311 313 316 316 317 317 316 316 316 316 315 315 315 315 317 319 319 318 317 316 315 311 298 298 295 301 299 298 297 295 292 289 288 286 284 282 282 282
305 304 306 307 308 308 311 313 314 316 315 316 316 316 317 316 317 316 317 318 312 308 304 303 302 301 296 295 293 295 295 292 290 291 290 288 286 286 287 284 281 281 281
306 305 305 305 305 307 311 312 313 314 315 315 316 317 317 317 316 313 309 303 302 298 297 295 295 293 293 291 292 292 289 286 285 285 285 286 285 285 284 283 281 280 281
306 308 310 308 309 311 313 313 314 313 311 312 312 310 309 305 302 299 298 296 294 291 289 287 289 291 291 290 290 290 288 285 283 283 281 282 283 283 283 283 282 281 281
304 305 306 305 307 310 313 311 304 305 305 303 300 299 298 298 297 296 295 292 290 287 285 284 283 284 286 287 287 287 286 285 282 280 281 282 283 283 282 281 280 278 278
303 303 303 301 300 303 307 302 299 300 299 297 295 295 294 294 294 292 290 288 288 286 285 283 282 281 282 283 285 284 283 282 281 280 281 282 283 281 280 279 278 277 277
299 300 299 297 296 297 298 299 299 298 296 292 291 290 289 288 288 288 289 287 286 285 284 282 281 279 279 279 280 280 280 280 280 280 281 281 280 280 279 278 277 277 276
291 292 292 291 290 291 291 293 294 293 291 290 288 287 286 285 283 283 284 284 284 286 284 282 281 279 277 278 280 279 278 279 279 279 279 279 278 277 277 276 275 275 275
285 286 285 285 284 286 287 288 290 290 289 287 286 285 285 285 283 282 281 283 283 283 282 282 281 280 280 281 281 280 280 279 279 278 277 276 276 276 275 275 274 274 272

GFSMW_sfc_thetae_063.txt.gz
Theta_e
323 324 322 324 326 327 326 324 323 321 318 320 321 320 319 320 321 323 323 326 322 324 325 325 326 326 322 322 326 322 321 318 319 314 315 316 318 318 318 318 318 318 319
322 322 322 323 325 325 324 322 321 320 318 319 321 321 320 319 320 322 323 325 325 326 327 326 325 325 325 327 325 325 320 319 319 313 312 310 313 316 317 317 317 321 318
320 321 320 322 324 325 323 323 322 320 320 318 320 321 321 320 317 319 320 322 324 325 327 328 327 327 328 326 327 327 325 319 320 321 317 312 310 315 317 318 318 320 319
321 322 321 321 323 324 325 326 324 321 321 321 319 318 319 317 319 318 321 321 321 326 326 324 325 328 327 327 328 327 327 325 320 320 319 323 321 315 312 317 319 319 314
320 322 322 322 323 325 324 324 324 323 322 322 320 319 317 320 320 319 319 319 319 323 322 325 323 324 328 328 329 328 327 327 323 323 321 320 320 322 317 313 313 315 315
318 322 324 324 322 324 325 325 321 321 323 322 320 319 317 319 317 319 318 318 320 321 325 325 324 323 324 325 327 327 328 326 325 325 325 322 318 317 316 313 317 316 316
318 321 322 322 321 322 324 323 322 320 321 321 321 321 320 319 318 319 318 317 317 321 325 326 326 326 325 323 326 327 327 328 326 326 325 324 323 323 320 318 315 315 317
318 320 322 323 322 321 323 323 321 321 321 321 320 321 321 322 320 318 318 318 319 322 325 327 326 326 324 322 325 325 324 325 326 326 327 325 324 325 323 319 316 313 312
317 319 322 324 323 322 322 323 321 322 322 321 320 321 322 321 321 322 321 318 322 324 325 325 325 325 325 326 325 322 320 323 321 325 326 325 325 324 325 324 322 318 311
315 319 321 323 324 324 323 324 323 322 323 323 323 322 322 324 322 323 322 322 322 325 325 326 325 324 322 321 324 322 322 322 324 324 324 325 325 325 326 324 322 319 316
316 319 321 324 325 326 324 323 322 322 323 324 323 322 322 325 324 324 326 325 326 325 325 323 323 323 322 322 321 324 324 323 323 325 325 323 325 325 326 324 323 319 314
315 320 322 323 324 325 325 323 323 321 322 325 325 325 326 326 325 326 327 329 326 326 326 326 323 322 323 323 322 322 323 323 322 323 324 323 323 324 325 323 318 316 313
315 318 321 322 323 324 325 325 324 323 322 323 324 326 327 327 328 328 328 328 328 327 326 326 325 325 324 324 324 324 323 324 324 324 323 323 323 323 319 316 313 312 309
313 314 318 320 323 324 325 325 325 325 324 322 323 324 326 326 327 328 328 327 328 327 325 324 325 326 325 325 325 324 324 324 324 324 324 324 323 321 317 315 312 311 308
311 313 314 316 319 322 324 325 325 326 326 323 322 323 326 327 326 327 327 327 327 326 327 326 327 326 326 324 325 325 324 324 323 323 323 322 317 309 311 314 313 309 306
311 313 313 314 315 316 319 323 324 325 326 324 324 324 325 325 325 326 326 327 326 326 326 325 324 325 323 309 303 313 324 323 322 321 322 319 308 307 300 300 301 307 305
310 311 313 314 315 316 317 318 322 325 325 325 324 325 325 324 325 325 324 324 325 326 324 324 324 323 324 304 301 299 320 322 323 321 319 318 315 305 310 293 290 289 290
310 312 314 315 317 318 317 317 318 320 324 323 324 324 325 324 325 324 323 324 324 324 323 323 324 323 323 302 300 298 315 319 321 321 320 317 311 301 295 290 287 285 286
310 312 314 316 317 317 319 318 316 316 319 322 323 324 325 323 324 323 324 324 324 324 324 324 323 321 322 300 296 299 311 310 298 295 296 295 292 291 291 286 284 283 282
310 310 312 313 308 307 311 316 317 316 315 317 321 324 324 323 323 324 325 325 325 323 321 311 301 294 299 292 293 297 295 289 287 287 287 287 288 287 288 287 286 281 280
307 308 310 305 298 297 300 314 316 315 318 321 320 321 323 324 324 325 323 321 313 299 293 289 290 290 290 290 290 291 289 286 285 284 284 285 286 286 286 286 284 281 282
303 304 304 300 293 292 293 296 298 302 304 306 303 302 303 304 306 305 301 297 293 290 288 287 284 285 286 287 287 287 286 286 284 282 283 284 284 284 284 283 282 282 282
300 299 298 295 291 289 289 288 292 295 295 293 292 291 291 291 292 292 292 291 291 288 285 284 282 281 282 283 285 285 284 284 283 282 282 282 282 281 281 281 281 281 282
296 295 293 289 288 288 287 287 289 291 290 288 287 286 285 284 286 286 287 287 285 285 284 282 280 280 280 281 282 282 283 282 282 281 281 280 280 280 280 280 281 280 280
291 291 289 287 284 285 285 286 287 288 287 286 285 284 283 283 282 282 283 282 283 284 283 281 281 280 280 280 282 282 281 281 281 281 281 281 281 280 280 280 279 279 279
284 284 284 284 282 282 282 283 284 285 284 283 283 283 282 283 281 281 280 283 283 283 283 283 282 282 282 283 283 283 283 283 283 283 281 281 281 280 280 279 278 278 277

GFSMW_sfc_thetae_066.txt.gz
Theta_e
322 324 322 324 325 326 325 325 323 322 321 321 320 318 317 319 320 320 320 321 323 323 322 322 323 321 319 319 320 319 316 316 317 314 312 312 314 315 314 315 315 316 318
320 322 321 322 324 325 324 323 322 319 320 320 320 320 319 318 318 321 320 322 322 321 321 322 321 322 321 319 319 316 314 315 315 310 309 305 307 311 313 312 313 313 314
318 320 320 320 323 324 324 323 322 319 319 321 321 320 319 318 317 319 320 320 320 320 319 322 321 321 322 320 319 320 317 314 314 314 310 305 303 307 310 311 311 311 313
318 321 320 319 322 324 324 323 321 319 318 320 319 317 316 314 315 318 320 320 321 320 320 322 322 321 322 322 322 323 320 319 313 312 315 316 316 310 306 309 311 313 312
316 320 320 321 322 324 324 323 322 320 319 319 319 318 317 317 317 317 318 319 319 321 322 323 323 324 322 323 322 321 321 321 318 316 316 314 315 315 311 305 307 310 311
315 320 323 322 321 323 323 323 322 320 321 319 319 318 317 317 316 315 316 317 317 318 320 322 322 321 322 322 322 322 321 322 320 319 318 317 314 312 311 308 309 307 309
316 318 321 321 320 321 322 321 322 320 321 320 318 319 318 318 316 315 315 316 316 315 316 321 321 320 321 322 322 321 320 321 319 319 318 318 318 318 315 312 309 309 312
317 317 320 322 321 321 322 321 320 320 321 320 319 319 319 318 318 318 316 317 317 317 317 320 321 321 321 321 321 319 318 319 319 319 320 319 319 319 317 315 311 307 309
315 316 320 322 322 321 321 321 320 320 321 321 320 319 319 318 318 319 319 318 318 318 319 321 321 321 322 321 319 318 317 318 319 319 319 318 320 318 317 317 316 312 306
314 316 318 322 323 322 322 323 321 320 321 321 320 319 320 321 320 319 318 318 318 318 318 320 321 321 322 322 320 318 317 317 318 318 318 319 319 319 319 318 316 316 313
315 317 318 322 324 323 322 322 322 321 321 321 320 319 319 320 321 319 319 319 319 319 318 319 320 321 321 321 319 318 318 317 316 316 317 317 318 317 318 318 318 316 316
314 317 320 322 323 323 322 321 321 321 322 322 322 320 319 320 321 321 321 321 320 319 319 320 320 321 321 320 320 319 319 317 316 316 316 316 318 317 318 318 317 317 317
313 317 320 321 322 323 324 323 322 321 321 323 322 321 320 320 321 322 322 322 321 321 320 320 320 320 320 319 319 318 317 316 317 317 317 317 317 317 317 317 317 318 317
312 313 315 320 322 323 323 324 324 323 322 321 322 322 321 321 320 322 323 322 323 322 321 320 320 320 319 319 319 318 317 317 317 317 318 318 317 317 317 317 317 317 315
311 312 312 314 315 320 323 324 325 325 324 322 320 321 323 324 324 323 323 323 323 323 323 322 321 321 321 321 319 318 318 317 317 317 318 318 316 309 312 317 317 315 313
309 311 313 314 314 316 316 316 323 325 326 323 322 322 322 323 323 323 324 324 323 323 323 322 321 320 320 309 303 311 319 319 318 317 319 319 308 307 301 301 302 311 312
308 310 311 313 315 315 316 315 317 317 324 324 324 324 323 321 322 323 322 322 321 322 321 321 321 320 321 304 302 300 317 319 319 318 318 317 316 306 311 300 296 291 290
308 308 310 312 309 308 307 309 312 317 317 320 323 324 324 322 322 322 321 321 321 321 320 321 321 320 320 302 299 297 309 315 316 316 315 315 313 312 308 292 286 285 286
307 308 309 305 303 300 302 307 313 314 317 315 317 323 323 322 322 321 320 321 320 320 320 320 320 319 318 292 294 298 310 312 298 292 292 294 293 291 292 287 284 283 283
304 305 305 301 297 295 298 302 302 302 301 303 309 310 310 322 321 321 321 321 321 319 316 297 294 291 293 290 294 297 298 290 286 286 286 288 288 288 289 286 284 281 280
301 302 301 295 292 292 294 294 294 294 296 298 301 301 300 305 307 314 311 314 299 293 289 287 287 287 288 289 290 291 289 286 285 284 284 285 287 287 286 285 283 281 282
298 297 296 294 291 290 290 290 289 292 292 291 290 291 291 293 298 298 296 295 293 289 286 284 283 284 285 286 287 287 286 285 283 282 283 284 285 284 284 283 283 283 282
294 294 293 290 289 288 288 286 289 290 289 287 286 285 286 286 288 290 291 289 288 286 284 283 282 281 283 284 285 285 285 284 283 282 282 283 282 282 282 283 283 282 282
288 288 288 285 284 285 285 285 287 288 287 285 284 284 283 282 283 284 283 284 285 283 282 281 280 280 281 282 282 281 281 281 280 279 279 279 280 280 280 279 278 279 279
284 284 283 281 281 282 282 284 285 287 285 284 283 282 282 282 281 281 281 281 282 282 281 281 281 279 279 281 282 281 280 280 280 281 281 280 280 278 278 278 278 278 278
281 280 280 280 281 281 282 283 284 285 284 283 282 281 281 281 280 280 279 283 283 283 283 283 281 281 283 283 283 284 284 284 284 282 280 279 278 278 278 277 276 276 274

GFSMW_sfc_thetae_069.txt.gz
Theta_e
318 317 317 320 319 322 321 322 322 322 321 320 319 319 318 322 321 323 324 323 323 323 324 323 323 321 323 319 319 317 316 313 314 311 310 311 313 313 314 317 317 318 319
316 315 316 317 320 320 321 322 321 321 321 320 320 319 319 321 322 322 322 322 323 322 321 323 322 319 322 319 317 314 312 313 313 309 308 304 306 310 311 311 313 315 317
314 314 315 316 319 319 320 320 319 320 320 320 320 319 318 318 318 318 319 320 321 320 320 322 321 320 320 318 316 314 312 310 311 312 308 303 302 304 306 308 308 310 310
315 314 315 315 318 319 320 320 319 319 319 321 319 317 315 313 316 316 318 318 319 319 318 320 319 319 320 317 316 317 314 314 309 310 313 313 312 305 303 306 307 307 309
315 314 314 316 317 320 319 319 318 318 319 320 319 317 315 316 316 317 316 317 318 317 318 318 319 317 318 318 318 318 317 317 314 310 311 311 312 311 307 302 305 306 309
315 315 315 317 317 319 318 318 317 317 318 319 319 317 315 314 312 314 316 317 317 317 319 317 320 320 318 319 318 318 318 318 317 315 314 312 310 309 308 305 304 304 306
315 314 314 315 316 317 317 317 316 316 318 317 318 317 315 314 312 313 314 315 315 316 317 319 318 318 319 319 319 318 317 317 317 317 317 317 317 315 312 311 307 307 307
315 315 315 315 316 317 317 318 316 315 318 317 317 318 318 316 315 314 315 316 316 316 317 318 320 320 317 318 319 319 318 318 318 317 317 318 318 318 316 312 310 304 306
308 315 316 316 316 317 317 316 318 317 317 318 318 317 318 317 316 316 315 316 317 317 316 316 319 320 319 317 317 317 317 318 318 318 318 317 318 318 318 316 315 311 304
306 313 316 316 317 319 318 317 318 318 318 318 319 318 318 318 318 318 316 315 316 317 317 316 318 319 320 320 318 318 317 316 317 317 317 316 317 317 318 317 316 315 312
307 308 316 317 317 318 318 317 317 317 318 318 319 318 318 318 318 318 318 318 316 316 317 316 318 319 319 320 319 319 317 316 315 315 315 315 317 316 317 318 317 315 315
309 310 316 317 316 317 318 317 317 317 318 318 318 317 319 319 319 318 318 319 318 318 317 316 316 317 318 318 317 317 318 316 314 314 313 314 316 315 316 316 315 315 315
309 310 312 314 316 316 317 318 318 317 318 318 317 316 317 318 318 319 320 319 318 318 318 317 315 316 318 318 318 318 317 317 316 315 314 314 314 313 315 315 315 315 315
309 310 310 312 314 315 317 317 318 318 318 319 318 316 316 317 318 319 319 320 320 319 317 317 317 317 317 318 318 318 318 317 317 316 316 315 314 314 314 315 315 315 315
308 309 310 310 310 311 312 314 315 318 318 318 318 318 318 318 317 318 319 320 320 319 319 317 316 317 317 318 318 318 317 317 316 317 316 316 314 308 311 316 316 315 315
306 309 308 307 305 305 306 308 310 314 317 318 317 319 319 319 318 318 318 318 320 320 320 319 318 317 317 308 302 311 317 316 315 314 314 315 306 306 301 300 302 312 314
305 306 303 301 300 299 301 302 309 310 312 311 312 318 319 320 319 319 318 318 318 320 319 319 320 319 318 304 301 299 316 316 315 315 315 315 316 307 314 303 296 291 291
303 301 299 297 296 295 296 301 303 302 303 303 304 306 306 308 316 320 320 320 320 319 320 320 320 320 320 303 301 298 309 315 317 317 317 317 316 312 311 294 287 286 286
300 298 295 294 293 292 294 296 296 297 297 297 300 301 299 300 305 311 318 319 319 319 319 319 319 319 318 291 293 297 308 313 302 293 293 296 297 293 295 289 284 283 283
297 294 292 291 290 290 293 293 293 293 292 293 294 294 294 295 295 300 300 316 319 318 314 296 292 292 293 289 291 297 302 291 286 286 287 288 288 289 289 287 284 281 281
293 294 291 287 287 288 290 289 290 289 290 290 290 289 289 290 290 294 296 297 300 296 291 287 286 287 287 288 289 291 290 287 285 284 284 285 286 286 286 285 283 281 282
289 289 287 286 285 286 286 286 286 289 288 287 285 285 285 286 286 286 289 290 290 287 285 284 283 284 284 286 287 287 286 286 284 283 283 284 285 285 284 283 283 283 282
285 286 284 283 283 284 284 283 285 287 286 284 283 283 283 284 284 283 283 285 286 285 283 282 281 281 282 282 283 284 284 284 282 283 283 283 283 282 281 283 283 282 281
282 283 282 281 281 282 283 284 285 286 285 282 282 281 281 281 282 282 282 281 282 281 282 281 280 280 281 281 281 281 281 281 280 280 280 280 279 279 279 279 279 279 278
281 281 280 280 280 282 282 283 285 285 283 283 282 281 281 280 280 280 281 280 281 281 280 280 281 280 280 281 283 282 281 281 281 281 280 278 278 277 276 277 276 276 276
279 279 279 279 280 281 281 282 283 284 283 282 282 282 281 279 279 278 278 282 283 283 283 283 282 282 283 284 284 284 283 283 282 279 277 276 276 276 275 273 273 274 274

GFSMW_sfc_thetae_072.txt.gz
Theta_e
316 316 319 319 320 320 319 320 321 321 319 320 319 320 320 321 322 324 324 323 327 326 320 320 322 319 318 317 317 315 313 312 312 310 308 311 315 315 315 316 316 316 317
313 314 317 318 320 318 318 319 320 321 321 319 320 319 320 321 322 323 324 323 323 325 323 320 322 322 319 318 317 314 313 312 313 311 308 305 307 311 313 315 316 316 317
312 312 315 316 319 318 318 320 320 321 320 320 319 316 318 319 319 320 321 322 323 322 324 322 322 321 321 318 316 313 313 309 310 312 309 302 303 306 308 310 314 314 315
314 313 314 315 317 319 319 319 319 319 320 320 318 316 315 315 318 319 320 320 322 321 321 322 321 319 321 319 317 316 312 312 310 308 310 310 309 305 302 307 307 309 311
314 313 313 316 318 320 319 317 318 318 318 319 318 317 316 316 317 319 319 319 320 319 319 320 320 318 320 318 317 316 314 312 309 307 309 310 312 311 305 301 303 304 306
313 314 314 317 317 318 319 317 316 316 317 319 318 316 315 315 314 315 316 317 318 317 317 319 319 319 319 319 318 318 316 315 313 311 311 310 309 308 307 303 302 303 305
312 311 312 313 316 316 316 317 316 315 316 317 317 317 315 315 314 315 315 315 315 316 316 317 318 318 319 320 319 318 318 316 315 313 312 315 312 312 310 308 306 305 306
312 311 313 314 316 316 317 317 316 315 316 318 318 317 316 316 313 313 315 315 316 317 318 318 318 319 319 319 319 318 317 315 315 316 315 316 316 316 315 312 307 304 305
311 311 313 314 316 316 316 316 315 315 315 316 318 317 317 315 313 313 314 315 316 317 317 318 318 318 319 319 318 316 317 317 316 316 315 315 317 317 317 316 314 311 306
311 312 313 314 316 317 317 316 315 315 316 317 317 317 318 318 316 314 313 314 316 316 317 315 318 319 318 318 318 317 317 316 316 317 316 316 316 316 317 317 316 315 312
305 312 314 314 315 317 316 316 316 315 316 317 317 317 317 317 318 316 314 314 315 315 316 316 316 317 319 319 317 317 317 316 316 316 315 315 315 314 315 316 316 314 314
310 312 313 312 315 315 315 315 316 316 316 317 317 316 317 318 317 317 317 316 315 315 315 316 315 315 316 318 318 317 317 316 315 315 315 315 315 314 314 314 313 314 314
310 310 311 312 312 314 316 316 315 315 317 317 317 315 316 317 317 317 318 318 318 317 316 316 315 314 315 316 316 317 316 316 316 316 315 314 314 313 313 313 313 314 314
308 307 306 308 308 310 311 312 314 316 316 317 317 315 315 316 316 318 318 318 318 318 318 317 316 315 315 315 316 316 315 315 315 316 315 314 313 312 312 312 312 313 312
303 303 303 302 303 304 306 310 311 312 317 317 316 316 316 316 316 317 317 318 318 318 318 317 317 317 316 315 314 315 315 315 315 315 315 315 313 307 309 312 312 312 311
301 299 298 297 296 298 301 303 304 305 306 307 311 313 316 316 316 316 316 317 317 317 317 317 317 316 316 306 301 308 315 316 316 315 315 316 307 306 301 300 301 309 312
297 295 295 293 293 294 297 297 299 300 300 301 303 302 304 305 312 316 316 316 316 317 317 317 317 317 317 303 300 299 314 316 317 317 316 316 316 306 313 302 296 297 292
293 292 291 290 291 292 294 295 295 296 296 296 297 297 298 299 301 304 307 317 317 316 317 318 318 318 319 302 300 299 311 315 316 317 316 315 315 314 312 311 308 291 287
291 290 289 288 288 289 292 293 292 291 291 290 292 292 293 295 296 297 299 301 303 317 317 318 318 318 317 291 293 297 311 313 314 312 298 298 303 303 300 307 292 285 284
289 287 287 286 286 287 290 290 289 288 287 287 287 289 289 291 290 292 294 295 298 301 299 290 288 287 289 288 290 291 304 308 294 287 287 288 288 289 290 291 286 282 281
287 287 285 284 284 286 288 287 287 285 286 285 285 285 286 287 287 288 290 291 289 287 286 284 283 283 285 286 287 288 289 288 286 285 284 285 286 286 286 285 284 282 282
285 286 284 283 284 285 286 285 285 286 285 284 283 283 284 284 285 285 286 287 286 284 283 283 282 282 282 284 285 285 285 286 284 283 283 284 285 285 284 283 283 283 282
283 284 283 282 283 283 284 283 284 285 283 282 281 282 281 282 283 282 283 283 284 283 282 281 281 281 281 281 283 283 283 282 281 281 281 282 282 281 280 281 281 280 279
281 282 281 280 280 282 282 284 285 284 283 282 281 281 280 280 281 282 282 281 281 281 281 281 280 280 281 281 281 281 281 281 280 280 279 279 279 277 277 277 278 277 277
280 280 279 279 280 281 281 282 284 284 282 282 281 280 279 278 279 280 280 280 282 282 280 280 281 281 280 282 284 282 281 281 280 279 278 277 276 275 274 275 275 275 275
277 276 276 277 278 279 278 279 281 282 281 279 279 278 278 277 277 277 277 281 281 282 283 283 282 281 282 283 282 282 281 281 280 277 275 274 274 273 273 273 273 273 273

GFSMW_sfc_thetae_075.txt.gz
Theta_e
313 314 318 319 319 320 319 319 318 318 320 321 321 318 319 321 323 325 327 324 322 321 318 318 316 316 311 312 313 312 310 309 311 309 309 309 311 312 313 314 315 315 316
309 315 316 318 318 319 319 319 318 318 320 320 320 320 320 321 322 324 324 326 324 321 318 319 316 315 313 313 314 313 311 311 312 310 309 305 308 311 313 313 315 314 317
309 314 315 316 318 317 317 318 317 318 319 319 319 318 319 320 319 320 322 323 325 323 319 320 318 317 315 316 316 314 314 310 310 312 309 303 304 307 308 311 314 314 314
311 314 315 315 317 317 318 319 320 317 318 319 317 317 316 316 318 320 321 322 324 324 321 320 321 320 318 317 317 315 314 313 311 307 310 309 308 306 302 307 312 314 313
312 311 314 315 318 319 319 320 319 319 318 317 317 317 315 316 318 319 319 320 320 321 322 322 319 319 320 318 318 314 312 312 313 308 307 308 310 308 305 302 304 306 311
311 312 315 316 317 319 318 317 316 316 318 316 315 315 315 315 313 317 317 318 319 318 319 321 320 319 319 318 317 317 315 312 313 313 310 309 308 308 307 303 304 304 305
309 311 312 314 317 317 317 316 316 314 316 316 314 313 314 315 315 316 317 316 317 318 317 319 319 319 319 319 318 316 316 315 314 312 311 312 311 311 310 309 306 305 306
309 311 312 314 315 317 316 316 315 315 316 317 316 314 314 316 316 316 316 317 317 318 319 317 318 319 319 319 319 318 317 317 315 314 314 314 313 314 312 310 308 303 304
309 310 312 314 315 316 316 316 315 314 316 316 317 315 314 314 314 314 315 316 317 318 317 316 317 318 318 318 318 317 316 317 317 316 315 314 315 315 315 314 313 310 304
308 309 312 314 316 316 317 317 317 314 315 315 316 316 315 314 312 311 311 314 315 316 315 316 317 316 318 318 317 317 317 317 317 317 316 316 316 316 317 316 315 314 311
309 310 311 313 315 315 316 316 315 314 314 314 316 316 314 315 316 313 312 312 313 313 314 316 317 317 317 318 317 316 317 316 316 316 315 315 316 315 315 315 315 313 313
310 311 312 313 313 313 315 315 315 315 315 314 316 315 315 317 317 316 314 312 313 313 314 314 315 316 318 318 317 316 317 315 315 316 315 315 315 314 314 314 313 313 314
304 306 307 307 309 312 314 314 315 315 316 317 316 315 313 314 314 316 317 316 314 313 314 314 314 314 314 316 316 317 317 316 316 316 315 315 315 313 313 313 312 313 313
300 300 300 302 304 308 310 310 311 314 316 316 316 315 313 314 314 314 315 316 317 316 315 315 315 315 314 314 315 316 316 316 316 316 316 316 315 314 314 313 313 313 312
297 298 297 297 299 302 303 304 306 305 308 315 315 314 314 314 314 314 315 316 316 317 317 316 316 315 315 315 314 314 314 313 313 314 314 315 313 307 309 313 312 311 310
293 293 294 294 294 295 296 298 298 300 302 302 302 303 305 309 315 315 315 315 316 316 316 315 316 316 316 305 301 308 314 314 314 313 314 314 306 305 300 299 301 308 310
291 290 290 290 291 293 294 293 294 296 296 297 297 298 299 300 301 304 307 313 315 317 317 317 316 316 316 302 300 299 313 314 314 314 314 315 316 307 313 302 297 298 297
289 288 288 288 288 291 292 292 291 290 291 291 292 293 294 296 297 298 299 299 301 305 314 316 317 317 316 290 293 297 310 314 314 315 315 315 315 315 314 313 311 307 303
288 287 287 287 288 289 290 289 288 287 287 287 288 289 290 291 291 292 293 294 297 296 295 291 290 293 290 288 289 290 304 312 313 314 300 293 300 297 295 309 308 293 284
287 286 286 286 286 287 289 286 285 285 284 284 284 287 287 287 287 289 289 291 290 288 286 284 284 285 285 287 288 290 294 299 299 288 287 287 287 288 289 291 296 285 281
286 286 285 284 284 286 287 285 283 282 283 284 284 284 285 285 285 286 287 287 286 285 283 283 282 283 284 285 287 288 288 286 285 284 283 284 285 286 286 285 284 282 282
284 284 283 282 284 285 285 283 282 282 283 282 282 282 282 283 284 284 285 285 285 283 283 282 282 282 282 284 284 284 285 284 282 281 281 282 283 284 283 282 282 282 280
282 282 282 282 282 283 284 283 283 282 282 281 280 281 282 282 282 282 281 281 282 282 281 281 280 280 282 282 283 283 282 282 280 281 280 280 280 280 280 280 280 279 278
281 281 281 280 280 281 282 283 284 282 281 279 279 280 280 280 281 281 281 280 280 280 280 280 280 280 281 282 282 281 281 280 279 279 278 277 277 276 276 276 276 276 275
279 279 279 278 278 279 279 281 282 282 280 280 279 278 278 279 278 279 279 279 280 281 279 279 279 278 278 280 281 280 278 278 278 277 276 275 274 274 273 273 273 274 273
276 276 277 277 277 278 277 277 279 281 279 278 277 276 276 276 276 276 276 280 280 280 280 281 280 279 280 280 280 280 280 279 278 274 272 272 271 271 271 271 271 271 271

GFSMW_sfc_thetae_078.txt.gz
Theta_e
306 312 318 318 317 317 319 320 321 321 320 318 318 319 319 321 323 326 327 325 325 327 324 320 317 317 314 314 313 311 310 310 313 311 310 310 311 312 313 314 315 316 316
306 311 316 317 317 320 320 319 320 319 320 321 320 320 320 321 322 324 323 322 321 321 320 318 317 315 313 313 313 312 309 310 314 309 308 306 309 311 313 314 315 315 316
304 311 314 316 317 319 319 319 319 318 318 320 319 318 319 320 320 322 323 322 321 320 319 318 317 313 313 313 314 312 311 310 312 314 309 304 304 308 310 311 312 313 314
305 312 313 314 317 318 320 319 317 317 319 319 318 317 315 315 318 320 322 323 322 320 319 319 316 314 313 313 315 314 313 313 311 309 311 311 310 307 302 308 312 314 313
308 312 314 315 317 318 317 317 316 317 318 318 318 312 314 315 318 319 320 321 322 320 319 320 317 316 315 316 316 314 313 313 313 310 309 309 309 308 305 302 305 310 313
309 312 314 315 318 318 317 317 318 318 317 317 317 312 314 315 315 315 318 318 319 321 319 320 320 320 318 317 317 315 314 313 313 313 310 310 308 307 306 304 305 307 308
303 309 311 314 316 316 318 318 317 316 316 315 316 315 312 313 312 316 317 318 317 317 320 319 319 320 319 317 317 316 315 313 312 312 311 311 311 312 310 307 306 305 306
302 309 312 314 315 317 317 316 315 315 315 315 315 313 312 312 312 315 317 318 318 318 318 320 319 319 319 319 318 317 316 316 315 314 313 312 312 313 312 310 308 304 306
303 308 311 314 315 316 316 316 315 315 316 316 315 314 311 312 315 315 316 317 317 318 318 318 319 319 318 318 319 319 318 317 316 316 315 315 314 314 314 313 312 309 303
308 309 312 313 316 317 316 317 316 314 315 316 316 315 315 313 313 311 313 316 317 317 314 315 318 318 318 319 319 318 318 317 317 317 315 315 315 314 315 314 314 313 310
308 309 311 313 316 316 316 315 315 314 315 315 316 316 315 314 311 312 312 311 315 316 316 316 316 317 317 317 317 318 317 316 316 316 316 315 316 314 315 315 315 314 314
307 311 312 313 314 314 315 315 314 315 315 315 315 316 316 315 312 313 312 313 312 314 315 315 316 316 316 317 317 316 317 315 315 315 315 315 315 314 315 315 314 314 315
300 303 307 311 313 313 314 314 315 314 315 315 315 314 314 315 312 313 314 312 312 312 313 314 313 313 316 316 316 316 316 315 315 315 315 315 315 314 314 314 314 314 313
298 298 298 301 303 306 307 308 308 313 316 315 315 314 314 314 312 312 313 313 313 312 313 313 314 314 313 315 316 316 316 316 316 316 316 316 315 315 315 314 313 313 312
293 294 295 296 298 299 300 302 303 305 307 314 310 307 312 315 314 314 313 313 314 314 313 313 314 315 315 315 314 314 314 315 315 315 316 316 314 308 311 315 314 314 312
290 290 291 292 293 294 295 295 296 297 299 299 300 301 303 304 304 307 313 315 315 316 316 316 315 314 314 304 300 308 314 314 313 313 314 315 306 306 300 300 302 310 313
288 288 288 289 290 290 291 290 291 293 293 294 294 295 297 297 299 301 301 301 302 304 310 313 316 316 314 289 291 295 312 314 314 313 314 314 314 306 313 303 297 298 297
288 287 287 288 289 289 289 288 288 288 288 289 290 291 292 292 294 294 294 295 297 294 292 291 292 295 291 288 289 289 297 310 314 314 312 302 304 307 298 309 311 309 302
287 286 286 287 288 288 287 287 285 285 285 285 287 288 289 289 291 290 291 291 290 288 287 287 287 287 287 287 289 290 296 302 292 288 287 287 287 287 290 292 292 288 283
286 285 285 286 286 287 286 284 283 283 283 283 284 285 287 287 287 288 288 288 287 286 285 283 284 285 284 286 288 289 294 287 286 284 284 285 285 286 287 287 287 281 280
285 285 284 283 284 286 285 283 282 281 282 283 284 284 284 285 286 286 286 286 285 284 283 282 282 282 284 284 285 286 285 284 282 281 282 282 284 284 284 284 282 281 281
283 284 283 282 283 285 284 282 280 282 282 282 282 282 282 283 284 283 283 284 284 283 282 282 282 282 282 284 283 283 283 282 280 278 279 280 282 282 281 280 281 280 279
281 282 282 281 281 282 283 281 281 281 280 281 280 280 281 281 282 282 281 281 281 281 281 280 280 280 281 281 282 282 281 280 278 279 279 279 279 279 278 279 278 277 276
280 280 280 279 278 280 280 282 282 281 280 279 279 280 279 279 280 280 280 280 279 279 279 279 278 279 279 279 278 277 277 277 276 276 275 276 276 274 274 274 274 274 274
278 278 278 277 277 278 278 279 281 280 279 278 278 277 278 278 277 278 278 278 279 279 277 277 278 277 276 278 280 279 276 275 275 273 273 272 272 271 271 271 271 271 272
276 276 276 276 276 276 276 276 279 280 278 276 274 273 274 274 274 275 275 279 279 279 279 280 278 278 279 279 279 279 278 277 276 271 269 268 269 269 269 269 268 269 268

GFSMW_sfc_thetae_081.txt.gz
Theta_e
309 309 317 324 325 327 326 324 325 324 322 321 321 322 321 324 326 327 328 327 326 327 325 325 322 323 321 320 321 321 321 320 323 319 317 319 321 321 322 324 322 322 324
307 308 316 322 324 324 325 322 323 323 322 323 322 322 323 324 325 328 327 327 325 326 326 321 322 321 320 322 320 320 320 320 321 318 317 311 314 318 320 321 322 322 322
306 307 315 320 323 324 323 322 322 323 322 324 325 322 322 323 322 323 322 321 324 325 323 321 320 319 321 319 319 320 321 317 320 322 318 311 311 315 319 319 321 322 321
306 306 313 318 321 324 325 322 322 322 322 326 324 320 318 318 321 323 323 321 321 320 320 319 318 317 320 319 318 318 320 321 317 319 318 322 320 314 312 317 319 321 320
306 306 313 318 322 325 323 321 320 321 322 325 324 321 319 320 322 322 322 322 320 321 319 318 315 316 318 319 318 317 318 321 320 318 317 317 318 320 316 311 313 318 320
306 310 316 319 321 324 321 319 318 319 320 322 322 320 321 319 318 320 320 320 321 320 320 318 317 316 317 317 319 318 318 318 320 318 318 316 315 313 314 313 315 315 317
306 313 316 317 319 320 317 317 318 317 318 319 319 319 322 320 319 319 320 319 319 319 318 319 317 317 317 319 320 320 319 319 320 321 318 319 318 317 316 315 313 314 317
312 310 316 317 319 319 317 320 321 319 317 318 318 318 321 321 320 321 321 321 321 322 321 320 319 318 318 318 318 318 319 321 320 320 322 319 318 318 316 315 314 312 313
311 312 314 318 319 318 319 321 319 317 316 317 317 317 320 321 320 320 321 321 321 320 320 320 319 318 317 317 316 317 317 317 317 317 319 318 315 315 316 317 316 312 309
311 311 314 317 318 318 318 318 318 316 317 317 317 317 318 320 320 319 319 319 320 322 320 319 319 318 318 317 316 315 317 317 317 317 316 316 317 315 315 315 315 314 312
308 313 315 317 318 318 317 316 316 316 316 316 317 317 316 317 318 318 320 320 319 319 320 319 320 318 318 317 317 318 317 316 317 318 317 316 318 317 316 316 316 314 313
301 308 314 315 315 315 315 315 316 316 316 317 317 317 317 316 315 317 318 318 319 320 319 318 319 320 319 319 318 316 318 316 316 317 317 316 316 315 316 315 314 314 315
298 300 301 309 313 314 314 315 316 315 316 316 317 317 317 316 315 318 319 317 317 320 321 319 318 318 320 318 318 318 318 317 317 317 316 317 318 318 316 315 314 314 314
294 295 296 298 300 303 305 308 310 315 316 316 316 315 316 317 316 318 320 319 319 318 318 318 318 319 320 320 319 318 318 318 318 319 318 317 316 316 317 315 316 318 318
290 291 292 293 295 296 298 301 302 305 310 307 306 305 307 314 316 316 319 319 319 317 317 317 319 319 318 317 317 318 317 317 317 319 319 319 317 309 314 320 320 318 315
289 289 289 289 290 291 293 294 295 296 299 298 298 299 300 301 303 305 304 308 308 307 315 315 315 314 307 290 291 299 318 317 317 316 317 317 307 307 301 300 302 309 315
287 287 287 288 288 288 289 289 290 292 292 293 293 295 296 296 297 298 299 299 297 297 296 295 299 292 291 289 290 290 303 310 315 315 313 313 312 301 310 302 297 297 296
286 286 287 287 287 288 287 287 288 288 289 288 289 291 293 293 294 293 294 293 291 290 289 289 290 289 288 288 289 289 298 303 292 290 290 291 290 290 291 296 295 286 285
286 286 287 287 287 287 287 287 287 286 286 285 287 288 290 290 291 290 289 289 288 287 286 286 286 286 286 287 288 293 293 288 286 286 286 286 286 287 289 294 287 284 283
285 285 285 286 286 286 286 285 284 284 284 284 285 287 287 288 288 288 287 287 286 285 285 283 284 284 284 286 287 289 288 284 283 282 283 284 284 285 285 286 285 280 280
285 285 284 284 284 285 285 283 283 282 283 284 284 285 285 285 286 286 287 286 285 285 284 283 283 283 284 284 284 285 285 283 281 281 281 282 283 283 283 283 281 280 280
283 283 282 282 283 284 283 281 280 282 283 283 282 283 283 284 285 285 285 285 285 284 283 283 282 283 283 283 282 282 282 283 281 280 281 281 281 281 281 281 280 280 281
281 282 281 280 281 282 283 280 281 282 282 281 281 281 282 282 282 283 283 283 283 283 282 282 281 281 282 282 281 281 280 280 280 280 279 278 278 278 278 278 278 279 280
279 280 279 278 278 280 281 281 281 282 281 280 280 281 280 281 281 281 282 281 281 281 281 280 280 280 281 282 282 282 282 279 280 279 278 277 277 276 276 277 277 277 277
278 279 278 277 277 279 279 281 282 281 280 279 279 279 279 279 279 280 280 279 280 281 279 279 280 279 278 279 280 280 280 279 277 278 278 277 277 276 275 275 274 274 275
277 277 277 277 276 277 277 278 279 279 278 278 277 277 277 277 277 277 276 278 279 279 279 279 279 279 279 278 278 277 276 276 276 275 274 273 273 273 273 272 272 272 271

GFSMW_sfc_thetae_084.txt.gz
Theta_e
313 315 317 322 329 332 335 336 333 336 331 328 328 327 328 328 328 329 329 330 329 328 328 328 328 326 324 323 324 328 327 325 327 322 321 322 323 324 323 325 325 325 326
312 313 316 321 328 330 334 334 332 332 332 331 330 328 327 328 329 330 332 333 331 331 328 326 325 325 323 321 322 326 324 325 326 321 320 313 318 321 323 324 324 326 325
311 312 313 318 327 329 333 331 331 333 330 332 329 329 328 327 326 328 330 329 328 327 326 326 324 324 322 319 320 326 326 322 325 326 320 313 312 317 321 323 323 324 324
311 312 313 316 324 328 333 331 331 332 329 330 328 327 324 321 325 326 326 328 326 326 325 325 324 323 322 320 321 325 326 325 322 324 323 324 321 315 314 322 323 324 323
312 313 314 315 323 328 332 330 328 329 329 327 330 326 325 324 327 326 325 323 322 322 322 322 322 321 322 321 321 325 327 327 325 322 323 323 323 323 317 314 318 323 324
315 315 316 317 322 328 331 327 325 325 327 328 329 327 325 325 324 324 321 321 321 321 319 318 319 320 319 320 321 327 326 325 325 324 324 321 320 319 318 316 318 318 322
317 317 316 318 322 326 326 322 322 322 325 330 328 325 325 325 323 322 320 320 319 319 319 318 317 317 319 319 320 322 323 324 324 324 324 322 321 322 320 318 315 315 319
317 318 317 320 322 326 320 320 321 322 323 328 326 323 325 324 322 323 323 322 321 320 320 318 319 318 318 319 321 320 321 323 325 324 324 323 323 324 322 318 314 312 315
312 318 317 321 323 324 318 320 321 321 322 325 321 321 324 323 321 323 325 325 326 325 321 321 318 318 317 318 319 318 318 320 322 325 325 324 323 323 322 320 318 315 310
305 313 317 320 323 322 320 323 326 320 322 321 321 320 323 324 323 324 324 324 325 323 323 321 320 317 318 317 318 316 318 318 319 319 319 322 322 323 323 321 319 317 312
301 305 317 319 321 320 321 321 322 319 320 322 321 320 321 322 322 322 322 323 324 323 323 321 319 317 316 316 315 314 315 316 317 319 318 317 319 320 319 319 316 314 314
298 301 305 317 317 318 317 318 319 318 320 321 320 320 323 322 320 320 323 325 324 324 323 323 319 318 317 316 314 312 313 314 314 315 317 316 317 317 318 317 316 315 316
295 296 298 302 310 315 316 317 318 318 319 318 318 319 320 319 318 318 323 322 321 322 322 321 321 320 319 319 316 315 316 316 317 316 313 314 316 315 317 316 316 317 316
292 293 294 295 298 301 304 311 316 317 318 318 318 317 317 318 317 318 321 319 319 319 320 320 319 319 321 320 318 317 316 316 318 318 318 316 317 317 317 316 317 317 317
289 289 290 291 293 295 297 299 303 307 311 309 307 307 307 311 315 317 319 321 321 320 321 321 320 320 320 301 301 320 320 320 320 321 322 322 318 310 314 318 319 320 318
287 288 288 288 288 290 291 293 295 298 300 300 299 301 301 302 302 303 304 304 304 301 302 302 304 296 295 289 290 296 316 319 319 318 320 320 309 308 299 299 300 306 314
286 286 287 286 286 287 289 289 291 293 294 293 295 296 297 297 297 297 296 294 294 294 294 294 293 290 289 289 290 290 301 306 296 294 295 298 296 293 296 295 289 288 287
286 286 286 286 286 287 287 288 289 289 290 290 291 293 294 293 293 293 292 290 290 289 289 289 289 288 288 288 290 290 294 289 288 287 288 288 288 288 289 295 288 285 285
285 286 287 286 286 286 287 287 287 287 288 287 288 290 291 290 290 289 288 288 287 286 286 286 286 286 286 287 290 290 287 285 284 284 285 285 285 286 290 292 284 283 282
285 285 285 285 286 286 287 286 285 285 285 286 286 290 289 289 288 288 287 287 287 286 286 284 285 286 285 286 287 288 286 283 283 284 284 284 284 285 285 284 282 279 279
285 285 285 284 284 286 286 284 284 284 285 286 287 288 288 288 289 289 289 289 288 287 286 285 285 285 285 285 285 287 287 284 283 283 283 283 283 283 284 284 284 281 283
284 285 284 284 285 286 285 283 283 284 285 285 285 285 286 287 287 288 288 289 288 287 286 286 285 284 284 283 283 283 284 285 284 282 282 282 281 281 282 282 282 283 284
282 283 283 283 284 284 285 283 283 284 284 284 284 284 284 286 287 287 286 287 287 286 285 285 284 283 284 284 282 281 281 281 282 281 280 280 280 281 281 280 280 281 283
281 281 281 281 281 282 283 284 284 284 284 283 283 282 282 283 284 283 284 284 284 284 284 283 282 282 282 283 284 284 284 282 282 281 282 281 281 280 280 281 280 281 280
281 281 280 280 280 281 281 282 284 284 283 283 282 282 282 280 279 280 281 280 280 281 281 281 281 280 279 279 279 280 282 282 281 282 283 282 281 280 280 279 278 278 278
280 280 280 279 279 279 279 280 282 283 282 282 281 281 281 281 280 279 277 278 278 279 278 279 280 279 278 278 277 277 277 277 279 281 279 278 278 277 277 276 276 276 274

GFSMW_sfc_thetae_087.txt.gz
Theta_e
314 316 317 318 321 327 332 336 340 339 340 335 331 331 328 331 331 332 333 333 333 332 331 330 330 329 330 328 328 326 324 323 325 322 322 323 325 325 324 325 323 325 324
313 314 316 317 322 328 333 336 338 338 338 334 334 333 332 330 333 333 331 331 329 330 329 329 328 327 327 326 325 325 322 323 326 321 318 314 317 322 324 325 324 326 324
312 314 315 316 322 327 332 335 337 338 337 336 334 333 331 330 329 328 329 334 333 334 332 331 328 325 327 324 324 324 323 319 324 326 320 313 311 317 321 324 323 325 323
311 314 315 315 319 327 332 335 336 337 336 336 333 330 327 324 327 328 330 331 332 331 332 331 328 326 324 323 323 325 324 323 322 323 323 323 321 315 314 321 322 324 323
312 313 314 316 317 326 330 335 335 335 335 334 333 330 328 327 328 328 328 328 328 327 328 326 326 324 324 323 323 322 323 324 325 321 323 322 322 322 317 313 318 321 324
316 316 317 318 316 322 331 335 333 333 332 333 332 331 328 326 325 327 326 325 326 323 321 321 324 323 322 321 322 322 322 324 325 324 324 322 319 319 318 316 318 318 321
316 320 319 318 318 322 329 333 331 330 330 332 332 330 329 327 325 326 325 322 321 320 318 318 318 320 321 321 322 322 323 325 324 324 323 325 324 324 322 320 316 316 319
314 316 321 321 320 322 329 328 326 326 327 331 331 330 328 326 325 327 324 324 322 322 320 318 317 319 320 320 321 322 323 324 325 325 325 323 324 325 322 320 317 313 314
311 312 316 321 323 325 326 324 323 324 326 331 330 328 327 325 324 327 327 325 325 323 322 320 318 317 319 319 319 319 319 321 325 325 323 323 324 325 324 323 321 316 311
308 306 311 316 324 325 323 322 323 324 326 330 328 325 325 325 326 327 326 326 327 325 324 320 320 318 317 318 319 318 319 319 320 321 322 323 323 322 322 323 323 321 316
304 300 302 306 321 322 321 320 323 323 324 327 325 325 324 324 325 324 325 325 326 325 325 323 319 318 317 317 317 316 316 315 316 319 320 319 321 321 323 323 323 321 319
301 297 297 300 315 320 320 321 321 321 322 324 322 323 323 324 323 322 323 325 324 324 323 324 321 318 317 316 315 315 315 314 315 317 317 317 317 317 319 319 318 318 319
297 294 294 294 298 306 318 318 319 320 321 322 321 322 321 320 320 321 322 324 323 323 324 323 321 319 317 316 315 315 315 314 314 314 315 316 316 317 317 318 316 317 316
294 291 291 291 293 296 300 303 316 320 320 319 319 318 319 319 320 320 322 322 322 321 321 322 322 320 319 318 317 315 313 312 314 314 316 316 314 315 315 316 314 314 313
291 289 288 288 289 291 294 297 299 306 312 309 309 308 310 316 316 314 311 317 315 316 316 320 320 315 301 295 299 311 316 316 315 316 317 317 314 307 309 315 315 316 315
288 287 287 287 287 288 290 292 294 297 301 301 300 301 302 303 302 301 300 300 299 299 299 298 297 296 294 289 291 295 311 310 309 310 308 305 297 296 291 290 290 290 299
287 286 285 285 286 287 289 288 290 293 294 295 296 296 296 296 295 295 293 293 292 292 291 291 291 290 290 290 291 292 300 295 293 292 292 294 293 292 295 289 287 286 286
286 286 286 285 286 286 288 288 290 289 290 290 292 293 292 292 291 290 289 288 289 288 288 288 288 288 289 290 289 288 289 287 287 287 287 287 287 288 291 287 284 283 284
284 285 286 286 286 286 286 286 286 287 288 287 288 290 290 289 288 287 287 287 286 286 286 287 286 286 286 288 288 287 286 285 284 284 285 285 285 287 290 285 282 281 281
284 284 284 285 286 286 286 285 284 285 285 285 286 288 288 289 287 286 287 287 287 286 286 285 286 286 285 287 288 287 286 283 283 283 283 284 285 286 286 284 283 280 281
285 286 285 284 284 286 286 284 284 284 285 286 287 287 288 288 287 288 289 289 288 287 287 286 286 284 285 285 286 288 287 285 284 283 282 283 283 284 284 285 284 283 285
285 285 284 284 285 285 284 283 284 286 285 285 286 287 288 289 289 289 290 289 289 288 287 286 285 285 284 283 283 284 285 285 284 282 282 283 282 282 282 283 283 284 285
283 284 283 283 284 285 285 283 283 285 286 285 285 286 285 285 287 287 287 288 288 287 286 285 284 283 285 284 282 282 282 282 282 282 281 282 282 282 282 281 281 282 284
283 284 282 281 281 283 284 284 285 285 284 283 282 282 282 282 283 282 281 281 284 284 284 283 282 282 281 282 283 284 284 283 283 283 283 282 282 282 282 281 282 281 281
283 282 281 281 281 281 281 284 286 286 284 283 283 282 281 280 278 279 280 279 280 280 281 280 280 280 278 278 279 281 282 282 282 284 284 282 282 281 281 280 279 279 279
281 280 280 280 280 280 280 281 283 284 284 283 282 283 282 282 280 278 276 278 279 279 279 279 280 278 278 278 278 279 279 280 282 282 280 279 279 278 278 277 277 276 275

GFSMW_sfc_thetae_090.txt.gz
Theta_e
311 313 316 317 316 316 320 340 339 339 339 338 334 332 330 330 330 331 333 333 334 332 332 330 330 330 328 327 327 326 323 323 325 321 317 319 320 318 317 320 321 322 322
309 312 314 317 317 318 324 338 339 338 338 338 334 333 331 330 329 329 329 331 333 331 330 329 328 328 327 327 326 324 321 322 324 318 316 311 315 319 319 319 319 322 320
308 311 313 315 318 322 331 336 338 337 337 337 333 332 330 329 328 328 328 329 330 330 330 328 328 327 327 326 326 324 321 319 322 322 315 310 308 313 318 318 318 319 322
310 310 312 314 316 323 331 334 338 335 337 335 332 329 326 323 326 326 327 329 331 329 329 328 328 327 326 325 325 326 323 321 318 320 320 317 316 310 310 317 318 319 320
312 310 310 315 315 323 329 332 336 335 335 333 333 330 326 326 326 327 327 328 328 329 328 329 328 327 325 324 325 324 323 322 320 319 318 316 317 316 313 309 314 317 318
315 317 319 316 314 322 328 331 334 333 335 333 333 329 327 325 324 324 325 325 324 323 322 324 325 325 325 323 324 325 324 322 321 321 319 317 314 314 314 311 313 313 316
313 314 316 319 319 319 327 331 332 331 333 332 331 330 329 327 325 325 324 323 320 320 319 319 321 323 324 323 323 323 323 322 320 320 320 320 319 319 317 316 314 313 315
312 312 315 317 315 322 329 331 330 329 331 331 330 330 328 326 325 326 324 323 321 320 320 318 319 320 321 321 322 322 322 321 320 321 321 320 320 319 317 315 313 310 312
309 308 311 312 313 323 329 330 328 329 328 329 330 328 327 325 324 326 325 324 322 321 320 319 318 318 319 320 321 320 319 320 321 321 321 320 319 320 319 318 317 311 305
305 304 305 306 315 325 326 326 327 326 325 329 329 326 325 325 325 325 323 324 324 322 320 319 318 318 318 319 319 319 320 320 321 321 320 318 319 319 318 318 318 316 312
302 299 300 300 303 315 323 323 323 324 324 327 326 324 325 323 324 324 325 325 325 324 322 320 318 317 317 318 317 317 317 317 317 317 317 317 318 317 318 318 317 316 316
300 296 296 296 297 299 305 321 322 322 323 323 323 323 322 323 323 323 324 324 323 324 322 321 319 317 316 317 316 315 315 314 314 314 315 315 316 315 316 316 316 316 317
296 294 292 292 293 294 297 301 320 320 320 321 321 320 320 321 320 321 321 322 322 322 322 322 319 317 316 315 315 314 313 312 312 313 314 314 315 314 314 315 314 314 314
293 291 289 289 290 292 294 296 301 318 319 319 319 320 319 319 319 319 322 321 321 320 321 321 320 318 316 315 315 314 314 314 314 314 314 315 315 314 314 314 314 314 313
289 288 287 287 288 290 290 292 295 301 309 309 308 308 309 311 310 307 310 309 308 305 305 303 301 299 297 294 299 313 313 311 311 312 312 311 302 296 298 310 313 313 312
287 286 286 286 286 287 288 290 291 294 299 300 300 300 301 300 299 298 298 298 297 296 296 294 294 294 295 291 292 299 304 304 304 302 302 297 295 290 289 289 287 289 296
284 284 285 285 285 286 287 287 289 291 293 294 295 295 294 293 293 293 292 292 291 291 290 291 291 290 290 290 291 292 293 291 291 290 292 293 292 293 289 287 286 286 286
283 284 284 285 285 286 286 287 288 288 288 289 291 291 291 290 289 289 288 288 288 288 287 287 288 288 288 288 288 288 287 286 286 286 287 287 289 291 288 285 284 283 284
283 284 284 286 285 285 286 286 286 286 286 285 286 289 289 287 287 286 286 286 286 286 285 286 285 286 286 288 287 287 285 284 283 284 285 285 285 287 287 284 282 281 281
284 284 284 284 285 285 285 285 284 284 284 285 285 287 288 287 286 286 286 286 286 284 284 283 284 285 285 288 287 286 285 282 282 283 283 285 285 286 286 283 282 281 282
285 286 284 283 284 285 286 284 283 283 284 285 285 286 286 287 287 287 287 287 286 284 283 282 282 282 283 284 287 287 284 282 281 280 280 282 285 285 285 285 284 283 285
285 285 284 283 284 285 284 283 283 285 285 285 284 284 284 285 286 286 286 287 286 284 284 283 282 282 282 283 284 284 284 284 281 280 281 281 283 283 283 283 284 284 284
283 284 283 283 284 285 285 282 283 284 283 282 282 282 283 283 283 281 283 284 285 284 283 282 280 280 282 282 283 283 283 282 281 281 282 282 282 282 280 282 282 278 280
283 283 282 281 280 282 284 284 285 285 283 281 280 280 279 279 280 280 279 278 281 280 281 280 278 277 277 278 281 283 283 282 283 282 282 281 281 277 276 277 277 277 275
282 282 281 280 279 280 281 283 285 285 283 283 282 280 279 277 277 277 277 277 278 280 278 276 277 275 275 277 280 280 280 281 282 282 281 280 279 276 275 275 274 274 274
280 280 280 279 279 280 280 281 283 284 283 282 282 282 281 279 277 275 274 278 278 279 279 279 277 277 278 279 279 280 281 282 282 279 277 275 274 273 273 272 272 272 271

GFSMW_sfc_thetae_093.txt.gz
Theta_e
303 305 306 308 310 311 309 335 335 336 336 334 333 330 329 329 327 329 331 331 330 328 327 327 326 328 327 325 325 325 323 323 325 321 318 319 317 319 320 321 319 319 320
303 305 306 308 309 310 312 334 335 336 336 335 334 331 328 324 325 328 330 330 328 327 327 327 328 327 325 324 326 325 322 322 325 319 316 311 314 317 315 318 319 318 320
302 304 306 308 309 309 318 334 335 335 335 333 329 327 325 324 321 322 324 329 331 328 327 328 328 328 327 326 325 325 322 319 322 322 316 309 308 312 315 315 318 317 318
310 306 305 307 307 310 330 334 335 334 333 332 330 325 324 321 321 322 324 327 329 329 328 328 327 327 326 325 326 325 322 321 318 321 322 317 315 309 307 313 315 317 319
310 311 313 315 311 316 333 334 333 333 333 330 328 325 322 320 322 321 322 324 325 327 327 327 324 326 326 326 326 324 322 322 319 319 319 316 315 315 310 307 312 315 317
310 311 314 315 315 316 328 333 331 332 331 329 328 325 322 320 321 319 320 322 325 326 325 327 326 325 325 325 325 326 323 321 321 321 319 316 313 313 311 309 311 311 314
308 308 308 309 311 312 314 329 330 329 330 328 327 327 325 321 320 319 320 319 319 318 319 320 321 323 325 325 325 325 324 322 321 320 319 319 316 316 315 313 311 311 313
304 303 305 305 306 314 317 324 328 328 327 327 326 327 326 321 321 321 320 317 317 319 319 318 319 320 320 323 324 324 324 323 321 320 320 320 319 318 317 315 313 309 311
300 300 301 302 302 306 320 322 324 326 326 325 326 326 325 321 321 320 321 319 319 318 317 317 318 318 320 322 322 322 322 323 321 321 321 320 319 319 318 317 315 312 307
298 297 297 298 299 303 310 321 323 322 326 326 326 326 323 322 321 321 319 319 321 320 319 317 317 318 318 319 320 319 321 321 321 321 320 320 318 318 317 316 316 314 309
294 294 294 295 296 298 302 307 320 322 322 324 325 323 321 323 321 320 320 319 321 318 318 317 317 317 317 318 317 318 319 318 319 319 320 319 318 317 317 316 316 314 314
292 292 291 292 292 294 296 299 303 318 319 323 322 322 321 321 321 322 323 323 321 321 319 318 316 316 317 317 316 316 317 318 318 319 319 317 316 316 315 315 315 315 315
290 289 289 289 290 291 293 295 298 305 320 321 320 320 320 320 320 321 321 321 322 322 320 318 317 315 316 315 315 314 314 314 314 315 314 315 315 313 314 313 313 314 314
287 287 287 288 289 290 290 292 295 300 317 319 318 318 318 318 317 319 319 319 317 319 319 318 317 315 315 315 315 314 313 313 313 314 313 313 313 313 313 313 313 313 313
286 286 285 286 287 288 289 290 292 296 301 307 307 307 308 308 307 306 305 304 303 303 304 302 301 300 299 297 305 314 313 312 312 313 310 301 298 295 297 312 313 312 312
284 284 285 285 285 286 287 289 291 295 294 296 297 300 300 299 298 297 297 296 295 295 295 295 295 294 294 292 294 303 302 302 305 300 297 295 291 289 289 289 288 289 300
283 283 284 284 285 285 287 287 288 290 291 290 291 292 293 293 292 292 292 291 290 291 290 290 290 289 289 290 291 291 292 291 290 291 293 293 290 289 288 287 286 286 286
282 283 283 284 285 285 286 287 288 288 287 287 288 289 289 289 289 289 288 288 288 287 287 288 288 288 288 288 288 287 287 287 287 287 288 290 290 288 286 285 284 284 284
282 283 284 284 284 285 285 286 285 286 285 285 286 286 287 287 286 286 285 286 285 285 285 286 286 286 286 287 287 286 285 284 284 286 286 286 286 286 287 284 282 283 283
283 283 283 284 284 284 285 285 284 284 284 284 285 286 286 286 285 286 285 285 284 283 283 283 284 286 285 286 286 285 284 282 282 284 285 286 285 286 285 284 283 282 282
284 284 284 282 283 284 284 283 283 282 284 284 284 284 285 285 285 285 285 284 283 282 282 281 282 283 284 285 285 285 283 281 281 281 282 284 285 286 286 286 284 283 283
283 284 283 283 284 284 283 281 280 282 282 282 282 282 282 283 283 285 285 285 284 282 282 281 281 282 283 284 284 284 283 283 280 280 281 282 284 284 283 283 284 284 283
282 282 281 281 281 284 283 281 281 282 281 280 279 279 279 280 280 279 280 281 283 281 280 279 278 278 280 282 283 283 283 282 281 281 282 282 281 280 280 280 280 277 275
281 281 280 279 279 281 283 284 284 282 280 279 278 278 278 277 278 278 278 279 278 277 278 277 276 277 278 279 281 282 282 282 282 281 280 278 278 276 275 275 276 275 275
280 280 279 278 279 280 280 282 284 284 283 281 279 277 277 276 276 277 277 277 278 278 275 275 276 275 276 279 282 281 281 281 280 279 278 276 275 274 273 273 273 272 272
279 278 278 278 278 279 280 281 281 282 281 281 281 279 277 276 275 274 274 279 279 279 279 278 276 277 279 281 281 282 282 281 279 276 274 272 272 272 272 271 270 270 270

GFSMW_sfc_thetae_096.txt.gz
Theta_e
300 300 302 303 304 304 305 332 336 336 335 333 330 329 329 329 329 329 329 328 330 329 327 326 326 327 326 325 324 323 322 322 324 321 322 320 321 321 322 322 321 319 320
300 302 300 301 303 305 306 325 334 335 335 335 334 331 330 329 329 328 329 328 328 329 329 326 326 326 326 325 325 323 322 322 324 318 316 311 313 317 320 320 320 317 319
301 302 303 301 302 304 307 325 333 334 335 336 333 329 324 322 322 325 328 329 329 328 327 326 325 325 325 323 324 323 322 320 322 320 315 310 308 312 315 317 317 316 317
308 310 310 311 311 309 307 322 332 334 335 334 330 327 327 324 323 325 322 327 330 328 325 324 325 326 326 325 324 325 322 322 319 319 321 318 316 310 309 314 315 316 316
308 308 309 310 312 313 315 329 333 334 334 331 331 328 325 322 322 321 321 321 326 328 327 326 326 325 325 325 325 324 322 323 321 320 318 317 315 315 311 308 311 313 317
305 305 306 307 308 309 314 326 332 333 332 331 328 327 322 321 321 320 320 321 320 324 325 323 326 325 325 322 325 325 322 321 321 321 319 317 314 313 311 309 311 312 313
301 301 300 301 303 304 308 317 329 329 330 330 327 326 322 322 321 320 320 320 322 323 324 324 325 325 324 322 325 325 323 321 320 321 320 319 317 317 315 312 310 310 312
298 297 299 299 300 302 306 315 327 329 328 327 325 324 323 322 322 321 321 321 322 322 320 320 321 321 322 324 324 324 324 323 321 320 320 319 317 317 316 314 312 309 310
294 294 296 296 297 299 302 310 324 326 327 326 324 323 323 320 320 320 321 318 317 316 315 317 317 318 319 320 321 323 323 323 322 321 321 320 319 318 317 317 315 312 307
292 292 293 294 296 298 299 304 314 323 324 323 324 324 322 322 322 320 318 318 317 317 315 316 316 316 318 319 320 321 322 322 322 321 320 320 320 318 317 317 315 313 311
289 290 291 292 293 295 297 299 302 314 318 319 323 322 321 322 322 320 318 318 318 319 317 317 316 316 316 318 318 319 319 319 320 320 320 319 319 317 316 316 316 314 313
288 287 289 290 291 291 293 296 297 303 312 318 322 321 321 321 321 320 319 318 318 319 318 317 316 316 316 317 316 316 317 317 317 319 319 318 317 316 315 315 314 314 315
287 286 286 287 288 290 291 292 294 298 304 319 319 319 320 320 320 320 320 321 320 319 318 317 315 315 316 316 315 315 314 317 318 318 318 318 317 315 314 313 313 314 313
285 286 285 286 287 288 289 291 292 296 301 318 317 317 317 317 316 315 314 314 319 319 318 317 316 315 315 315 315 314 314 313 314 315 315 317 316 314 313 313 312 312 312
284 284 284 284 285 286 287 289 291 294 297 300 305 308 308 308 307 305 304 303 303 302 304 303 302 301 300 299 307 313 312 312 312 305 302 299 299 296 300 313 312 312 311
283 283 283 284 284 285 286 288 289 291 293 294 294 298 298 298 298 297 296 296 295 295 294 293 293 293 293 291 294 304 306 307 304 297 294 293 291 290 289 289 288 290 307
282 282 282 283 284 284 286 286 287 289 290 290 291 292 292 291 291 292 291 290 290 290 290 289 289 288 289 289 290 291 294 293 293 294 294 291 289 289 288 287 287 286 286
281 282 282 283 284 285 285 286 286 287 287 287 287 288 288 287 287 287 286 287 287 287 287 287 287 287 287 287 288 288 288 288 287 289 291 289 287 287 287 285 284 284 284
282 282 283 283 284 284 285 285 284 285 284 285 285 285 286 285 285 284 284 285 285 284 285 286 286 285 285 287 286 286 286 285 285 286 286 286 286 287 288 284 283 282 283
282 282 283 283 282 283 284 282 281 281 282 283 284 285 286 285 284 283 283 283 283 283 283 283 284 285 284 286 286 285 284 283 283 284 285 286 285 286 286 284 283 280 281
282 282 281 282 282 282 282 280 280 279 281 282 282 282 283 285 285 285 284 283 282 282 281 281 282 283 284 284 285 284 283 282 282 282 283 284 286 286 286 285 283 281 281
280 280 280 280 282 282 281 279 279 280 281 280 280 280 280 281 282 283 283 283 281 280 280 280 280 282 283 284 284 284 283 283 281 280 281 282 284 284 283 283 283 282 279
279 279 279 279 280 282 282 279 280 280 279 279 278 278 279 279 279 279 280 280 280 279 278 278 278 279 281 282 284 283 283 282 280 280 280 280 279 279 279 279 278 276 275
278 279 278 278 278 281 282 283 283 281 279 277 277 277 278 277 278 278 278 277 277 277 277 277 277 278 280 280 281 282 282 280 279 278 277 276 276 274 274 274 275 274 272
278 278 277 277 277 279 280 281 283 283 280 278 278 276 276 276 277 278 278 277 278 277 275 276 277 277 278 281 283 281 280 278 278 277 276 274 273 272 272 272 272 273 273
277 276 277 276 276 277 277 278 280 281 281 280 279 277 275 275 275 275 275 280 280 280 280 279 278 280 282 283 283 282 281 279 278 274 272 271 271 271 271 270 270 271 271

GFSMW_sfc_thetae_099.txt.gz
Theta_e
298 299 299 300 300 300 300 320 331 335 335 334 332 331 331 333 333 334 332 332 331 329 328 326 327 329 327 326 327 326 323 322 324 322 321 322 324 324 325 325 324 321 320
297 299 300 298 298 301 301 312 328 334 335 335 334 332 332 333 333 332 331 331 329 329 328 326 327 327 325 325 325 324 322 323 324 319 317 312 314 319 323 323 322 321 320
305 308 309 306 306 302 300 309 326 333 335 335 334 326 325 326 325 327 328 328 329 329 330 328 327 326 326 324 324 324 323 320 323 319 316 310 308 312 317 319 319 318 318
305 304 304 305 307 308 311 307 324 332 334 335 332 328 327 326 327 329 329 326 327 327 328 327 327 326 326 324 324 324 323 322 318 320 320 315 314 310 308 314 316 316 315
302 302 302 303 304 305 308 313 318 331 333 334 332 329 327 326 326 327 322 326 325 326 326 327 326 326 325 325 324 323 322 321 319 319 318 316 315 314 312 309 311 314 315
300 300 302 302 304 304 305 308 319 329 332 333 332 329 327 323 321 323 321 322 324 325 326 326 326 326 325 324 323 324 323 322 320 321 318 317 312 312 312 310 312 312 313
296 297 297 297 299 300 301 305 313 328 331 332 331 328 326 323 321 321 322 320 319 318 324 324 324 324 323 323 323 323 322 322 321 321 318 318 316 316 316 313 312 311 312
294 294 295 295 296 298 300 300 307 327 330 330 328 326 322 323 322 321 322 321 320 320 320 322 321 323 323 321 321 323 323 323 321 321 321 319 317 317 316 314 312 308 310
291 291 292 293 294 295 298 299 305 326 327 328 324 322 322 322 321 321 321 321 321 322 323 322 322 321 321 321 322 322 322 323 322 321 321 320 318 318 318 317 315 311 306
289 289 290 291 292 294 297 300 302 308 323 324 325 323 322 322 321 321 320 319 318 318 317 316 314 315 314 315 318 318 320 321 322 321 321 320 319 317 318 317 316 314 311
288 287 288 290 291 292 295 297 298 303 308 319 323 322 321 320 320 320 318 318 317 316 314 313 312 314 312 316 316 317 318 319 319 320 320 319 320 318 317 317 316 314 312
287 287 287 288 288 289 291 294 295 299 303 309 319 319 321 320 320 319 319 318 317 317 317 315 314 315 315 315 315 316 317 317 317 319 320 319 319 317 317 317 316 314 313
286 285 285 286 286 287 289 291 294 296 298 305 318 319 320 320 319 319 319 319 317 315 317 316 315 315 315 315 315 315 316 315 317 317 319 318 318 316 316 315 314 315 313
285 284 284 284 286 287 287 289 291 294 295 299 315 318 319 319 318 319 319 319 316 317 317 317 315 314 314 315 315 315 313 313 313 315 317 318 318 316 315 314 314 313 313
283 283 283 283 284 285 286 288 289 292 292 294 296 300 308 309 310 308 307 306 306 307 307 304 301 300 298 296 298 312 312 312 305 300 299 298 302 302 307 314 313 313 311
282 282 283 283 283 284 285 286 287 289 290 290 289 293 296 299 297 297 297 297 296 295 295 293 293 292 291 290 292 301 307 304 301 297 295 293 292 290 290 290 288 293 310
281 281 282 283 283 283 285 284 285 287 288 287 288 287 288 290 290 290 290 290 290 291 289 289 289 288 288 289 290 291 293 292 293 293 292 291 290 289 288 287 287 286 286
280 281 282 282 283 283 284 284 285 284 285 285 286 287 286 285 286 286 286 286 287 287 287 287 287 286 287 288 288 288 288 287 287 288 288 287 287 287 287 286 284 283 284
281 281 282 282 282 282 283 283 282 282 282 282 283 284 285 285 284 283 283 284 284 284 284 285 285 285 285 287 287 287 286 285 285 286 286 286 286 287 288 284 282 281 281
280 280 282 282 281 281 282 280 279 280 279 280 281 282 284 284 283 283 282 283 283 282 283 283 284 285 284 286 286 286 285 283 283 284 285 286 285 286 285 283 282 278 278
281 281 281 281 280 281 281 278 277 277 279 280 280 281 281 283 283 283 282 282 282 282 281 281 282 283 284 284 285 285 284 283 282 282 282 284 285 285 285 283 280 279 279
279 280 280 280 282 281 279 277 277 278 279 279 279 279 279 280 281 281 281 281 280 280 280 280 280 281 282 284 284 284 283 282 280 279 280 282 283 283 282 280 280 279 277
278 279 279 279 280 281 281 278 278 278 278 277 277 278 278 278 279 278 278 278 279 279 279 279 279 279 281 281 282 281 280 280 278 278 279 279 279 279 278 278 277 276 275
277 278 277 277 277 279 280 282 280 279 277 276 276 277 278 277 278 278 278 277 276 277 277 278 278 279 280 280 281 280 279 278 277 276 275 276 275 274 274 274 274 274 273
277 277 276 276 276 277 277 278 280 281 278 277 276 276 276 276 277 278 277 277 279 278 277 278 279 279 279 280 281 279 277 277 276 275 274 273 273 272 272 272 272 272 272
275 274 275 275 275 275 275 277 278 279 279 278 276 275 275 274 275 276 277 281 281 281 281 281 280 281 282 282 281 281 280 278 277 273 271 270 270 270 270 270 270 270 270

GFSMW_sfc_thetae_102.txt.gz
Theta_e
295 297 306 308 302 296 297 299 305 328 335 336 333 332 331 332 333 333 332 331 332 331 331 330 329 329 328 328 328 327 325 324 324 322 322 323 325 325 326 327 326 325 324
304 307 306 306 306 307 306 301 305 321 334 335 335 335 333 334 334 333 332 331 331 331 330 329 328 328 328 327 327 325 323 324 324 319 317 312 315 321 324 325 325 324 323
301 303 304 303 304 304 304 307 309 316 332 334 335 328 331 328 330 331 331 331 331 331 330 328 328 328 328 325 325 325 323 321 323 321 318 310 310 313 317 322 323 322 321
300 300 300 301 301 303 304 305 308 311 328 333 332 330 328 326 328 330 331 332 332 330 330 328 328 328 327 325 324 325 324 323 320 321 321 318 315 310 308 316 318 320 320
296 296 297 298 300 301 303 304 305 309 318 332 332 330 327 328 327 330 329 329 329 329 329 327 326 327 326 325 325 324 323 324 322 321 319 316 315 314 309 309 312 315 317
293 294 296 296 297 298 299 302 304 306 313 331 331 329 327 326 325 327 326 327 327 326 325 325 325 325 326 324 324 324 323 322 322 321 320 319 314 311 311 309 312 313 313
291 291 291 292 294 295 296 299 301 303 308 328 331 330 327 326 325 326 326 325 325 324 324 324 324 325 326 325 324 323 322 322 320 321 320 320 319 316 315 314 312 312 313
290 290 291 291 292 293 295 296 299 301 306 327 331 332 329 324 324 325 325 324 324 324 324 324 325 325 324 323 323 321 321 322 321 321 321 320 320 317 316 314 313 309 310
289 289 289 290 290 291 292 295 297 300 307 330 329 327 324 322 321 322 323 322 322 320 321 321 322 322 322 321 322 321 321 321 321 322 322 321 321 319 318 318 317 313 308
287 287 288 288 290 290 292 294 297 299 304 313 326 324 324 323 321 321 320 321 320 320 320 318 318 318 319 321 321 320 321 321 322 322 321 321 321 318 318 317 317 316 312
286 286 286 288 289 290 290 291 295 298 302 305 317 322 321 321 321 320 320 320 320 320 319 319 318 317 316 316 315 315 315 316 318 320 320 320 321 318 317 317 317 315 313
286 285 286 286 287 287 288 289 292 295 297 302 310 320 320 320 319 319 319 319 318 318 317 316 315 315 315 315 315 312 316 316 316 317 318 318 319 318 318 316 316 315 315
285 284 284 285 285 286 287 288 290 293 295 298 308 317 318 319 318 319 318 319 318 317 317 316 315 315 315 315 314 314 315 316 316 317 317 317 319 318 317 316 315 315 314
283 283 283 284 284 285 286 287 288 291 294 294 294 297 306 318 317 319 318 318 318 316 315 316 315 315 314 314 315 315 314 313 310 308 310 314 318 319 318 316 316 315 313
282 282 282 283 283 284 285 286 287 289 291 291 291 290 293 298 306 310 315 315 313 312 309 305 302 301 300 297 300 309 313 309 302 299 297 294 297 302 308 316 316 315 313
281 281 282 282 282 282 283 284 285 286 289 289 289 290 288 290 291 295 297 297 295 295 295 293 293 292 292 290 293 300 303 301 298 295 293 292 291 290 290 290 289 297 313
280 281 281 281 282 282 283 282 283 285 285 286 287 288 288 286 286 288 290 289 289 289 288 288 288 288 289 290 292 292 293 292 291 290 290 290 290 289 289 288 288 287 287
279 280 281 281 281 282 281 282 283 283 283 283 285 286 287 286 285 285 285 285 286 285 286 286 286 287 288 288 289 289 289 287 287 287 287 287 287 287 287 286 284 284 284
279 280 281 281 281 280 281 280 280 281 281 280 281 283 284 284 284 283 283 283 283 283 284 284 285 285 286 287 288 287 286 285 285 286 286 285 285 287 287 283 281 280 280
280 280 281 281 280 280 280 279 278 278 278 279 280 282 282 282 282 282 282 283 283 283 283 283 284 285 284 287 287 286 285 283 283 284 284 286 285 285 284 282 280 277 277
280 280 280 279 281 280 280 277 277 276 278 279 280 280 281 281 281 281 281 281 281 281 281 281 282 282 283 284 285 285 283 282 282 282 282 283 284 284 283 281 279 277 278
278 279 278 278 280 281 279 277 276 278 278 278 278 278 279 279 280 280 280 280 281 280 280 280 280 280 281 282 283 282 282 281 279 278 280 281 282 282 281 280 280 279 277
277 278 277 277 278 279 280 277 277 277 277 276 277 277 278 278 278 277 278 278 279 279 279 279 279 279 280 280 281 281 280 279 277 277 279 279 279 279 278 278 277 276 275
275 276 276 275 276 277 278 279 279 278 276 275 275 276 278 277 277 278 278 278 277 277 278 279 279 279 279 279 278 278 277 277 276 276 275 276 275 274 274 274 275 274 274
275 275 275 275 274 275 276 276 278 280 277 276 276 275 275 276 278 278 279 278 280 280 278 279 279 278 278 279 280 278 276 276 276 275 274 273 273 272 272 272 272 272 272
274 274 274 274 273 274 274 275 277 278 277 276 274 273 273 273 273 274 274 279 281 281 281 281 280 280 281 281 280 279 278 277 276 273 271 270 270 270 270 270 269 270 270

GFSMW_sfc_thetae_105.txt.gz
Theta_e
309 311 311 312 312 313 314 315 315 311 320 334 336 333 330 333 333 334 337 336 335 334 335 336 335 333 332 330 330 329 327 326 328 326 326 327 330 330 327 331 330 330 328
307 308 309 309 309 309 311 312 314 316 316 327 335 336 334 334 335 335 335 336 336 335 335 335 333 331 330 330 330 328 326 326 326 322 320 314 318 324 328 328 329 329 330
302 303 304 305 306 306 307 308 311 313 317 321 334 338 334 334 332 333 332 333 337 336 335 334 333 330 330 329 330 330 328 322 325 326 320 312 312 316 323 325 327 328 328
300 300 300 301 302 303 304 305 307 310 314 319 327 332 328 327 331 333 333 333 334 334 335 334 333 331 331 331 330 331 329 326 321 324 324 321 321 316 314 319 323 327 325
297 297 297 298 300 301 301 303 303 306 311 314 321 331 331 332 335 335 336 334 333 334 334 333 333 333 332 331 330 329 328 327 324 323 322 320 318 318 316 313 316 319 322
295 296 297 297 298 299 299 298 299 302 306 311 316 327 331 332 331 333 333 332 330 331 332 332 332 332 330 331 332 328 328 326 325 325 324 321 316 316 315 315 317 316 317
294 294 293 294 295 295 295 296 297 298 302 307 314 323 330 330 332 332 333 330 328 328 329 330 331 331 330 331 331 327 327 326 324 323 322 323 322 321 321 320 318 316 315
293 292 292 292 293 292 292 293 294 296 301 304 310 324 330 330 332 333 333 331 327 328 330 329 331 331 329 329 331 330 329 325 324 324 323 323 322 322 320 320 318 314 314
290 289 291 291 291 290 291 292 293 295 299 304 308 329 330 329 328 332 334 331 329 328 328 329 329 329 327 328 328 325 326 328 324 323 323 323 324 325 324 321 319 316 310
289 289 289 289 290 289 290 291 292 294 297 301 306 322 329 328 327 328 330 329 329 328 326 326 327 326 327 327 325 325 326 322 322 322 322 322 324 323 324 323 323 320 316
288 288 287 288 288 288 289 289 291 292 295 298 303 310 324 325 324 324 325 325 325 325 325 325 324 324 325 326 325 325 321 321 321 321 321 321 323 321 321 322 321 319 320
287 286 286 286 286 286 287 288 289 291 294 296 301 315 322 322 322 322 322 323 323 324 323 323 321 322 322 322 321 318 318 318 320 322 322 322 321 321 320 319 317 319 318
285 285 285 285 285 285 285 286 288 289 292 295 296 301 303 316 321 321 320 321 320 320 321 320 319 319 318 317 317 318 319 321 321 320 321 318 318 317 318 317 317 318 316
283 284 284 284 284 284 284 285 286 288 291 293 293 292 294 297 304 320 320 320 319 319 319 320 318 317 317 317 317 317 318 318 315 309 304 301 301 307 318 317 317 316 315
282 282 282 283 283 283 283 284 285 286 288 290 291 290 291 291 293 296 303 318 319 316 317 312 306 305 305 301 312 317 317 309 303 300 297 295 293 292 297 317 317 316 315
281 281 282 282 282 282 281 282 283 284 286 287 288 290 290 289 288 289 291 293 294 295 295 294 293 293 293 290 292 302 306 303 300 297 295 294 292 291 289 290 289 290 314
280 280 281 281 282 281 282 281 282 283 283 284 285 287 288 288 287 286 286 286 287 288 288 289 289 288 289 289 291 292 296 294 293 293 293 291 291 290 289 288 288 287 287
279 280 281 281 281 281 281 282 282 281 281 281 282 283 285 286 287 286 284 284 285 285 285 286 287 287 288 288 288 288 289 288 288 288 289 289 288 287 287 285 284 284 284
280 281 282 282 281 281 281 281 280 280 280 280 280 281 282 282 284 284 284 284 283 284 284 285 285 285 286 287 287 287 286 285 285 286 287 286 286 286 287 285 282 281 281
281 280 281 282 281 281 281 279 278 279 278 279 280 281 281 281 281 282 282 283 282 281 282 281 283 284 284 286 286 286 285 283 283 284 284 285 284 284 284 283 281 278 278
280 281 280 279 280 281 280 278 277 277 279 280 281 280 281 281 282 282 283 283 282 281 280 280 280 281 282 283 284 284 282 281 281 281 281 283 283 283 283 282 280 278 279
279 280 279 279 279 280 279 277 277 278 279 280 280 280 280 282 282 282 282 282 282 281 280 280 279 280 280 282 282 282 281 281 278 278 279 281 282 281 281 280 280 279 279
278 279 279 279 279 279 279 277 278 278 278 278 279 280 281 281 282 282 281 281 282 282 281 281 279 279 281 280 281 280 279 280 278 278 278 279 279 279 278 279 278 278 277
277 278 278 277 277 279 279 280 280 280 279 278 278 279 280 279 281 282 282 282 281 281 281 280 280 280 281 280 281 281 280 278 278 277 277 277 276 276 276 277 277 277 277
277 277 277 276 277 278 278 280 280 280 278 278 278 278 278 279 279 280 281 281 281 281 280 281 281 280 279 279 280 280 279 279 277 277 277 276 276 275 275 275 275 276 277
276 275 276 276 276 277 276 278 279 279 277 276 276 277 277 277 277 278 277 279 280 280 280 280 280 280 280 280 279 278 277 277 276 276 275 274 274 274 274 273 273 274 274

GFSMW_sfc_thetae_108.txt.gz
Theta_e
312 315 316 317 318 319 319 320 322 324 325 317 326 332 335 338 339 343 343 342 341 340 339 339 339 336 335 336 337 337 333 333 334 328 327 331 334 333 334 334 331 333 331
310 312 313 314 315 315 316 316 318 320 322 323 320 330 334 335 337 340 342 341 339 339 338 338 336 336 336 335 335 333 329 331 334 325 323 318 322 329 333 332 331 332 333
307 309 309 310 312 312 312 313 314 316 318 322 324 324 332 335 334 335 337 338 340 339 338 338 337 336 337 334 334 332 330 326 328 332 323 315 314 319 327 330 330 332 332
306 306 306 307 308 309 311 311 312 313 314 318 320 323 324 328 332 334 335 335 337 340 338 338 338 338 337 335 336 333 334 332 325 328 330 324 324 318 318 325 329 332 331
304 304 304 305 306 308 308 309 309 310 311 312 313 316 322 330 333 333 334 334 334 337 338 339 338 337 336 335 335 333 334 335 331 327 325 325 322 320 320 319 322 325 329
303 303 304 304 304 305 305 305 305 305 307 307 309 311 315 324 331 333 333 332 333 333 335 337 338 338 335 333 334 337 337 334 334 332 330 327 320 319 317 319 320 323 325
301 301 299 300 301 301 301 301 299 299 302 301 304 308 310 320 326 333 333 332 332 331 332 334 335 335 335 337 336 337 336 335 333 331 331 331 330 327 323 322 321 320 324
300 299 298 299 298 299 298 296 294 294 296 297 300 304 307 313 326 331 330 333 333 330 332 333 334 334 336 335 336 335 334 335 334 330 330 327 326 326 323 320 318 314 316
297 297 297 297 296 296 296 292 291 292 294 296 299 302 305 311 328 335 331 331 335 333 332 332 331 333 332 331 333 333 333 332 332 331 329 326 326 327 327 323 322 317 311
296 296 296 295 293 293 292 291 290 290 292 295 298 301 304 312 331 335 332 331 336 334 333 332 330 330 329 329 331 332 331 329 331 329 329 326 327 326 327 328 326 324 317
294 294 294 294 293 292 291 289 288 288 290 293 296 300 308 328 331 331 333 332 333 332 331 330 327 328 328 328 327 328 329 328 328 328 328 324 328 324 325 327 326 324 323
294 293 293 292 291 290 289 287 286 286 289 292 296 299 305 314 324 327 330 330 329 328 327 327 326 326 326 327 327 327 327 326 326 325 323 324 323 322 323 322 323 323 323
291 292 291 290 287 287 285 285 285 286 288 291 294 295 298 300 305 322 324 325 325 324 324 324 324 324 325 325 327 326 325 325 325 324 325 324 324 323 325 324 321 320 321
289 288 289 288 286 285 284 284 284 286 287 289 290 292 293 296 298 301 310 321 321 321 322 323 323 323 323 324 324 322 321 321 321 319 319 315 312 308 309 314 319 318 317
285 285 286 287 285 284 283 283 283 284 286 286 286 288 292 292 291 293 294 297 305 316 319 318 318 315 316 312 322 321 321 317 312 309 305 301 295 291 293 302 311 317 316
283 284 285 285 284 284 283 282 283 283 284 284 284 285 288 289 289 289 290 290 291 293 295 296 298 297 295 292 294 312 315 308 304 300 299 297 295 293 289 289 288 289 305
282 283 283 284 284 283 284 283 283 283 283 282 284 284 286 286 287 287 286 286 286 288 288 289 289 290 290 291 292 293 297 295 294 295 296 295 293 293 293 289 288 287 287
282 282 283 283 283 284 283 284 284 283 282 282 282 283 284 284 285 285 284 284 284 284 285 285 286 286 287 288 288 288 288 287 287 288 289 289 289 288 288 287 286 284 285
282 282 283 283 283 283 283 283 283 283 282 282 282 283 283 283 283 283 282 283 282 282 282 283 284 285 285 287 287 286 285 284 284 285 286 286 285 286 288 285 284 283 283
282 281 282 282 282 282 283 282 281 282 282 282 283 284 284 284 283 284 282 282 282 281 281 280 281 283 283 286 286 285 284 282 282 283 283 284 284 284 284 283 282 278 279
282 284 282 280 281 282 283 281 281 280 282 283 284 284 285 284 284 284 285 284 283 282 281 280 279 280 281 282 284 284 282 281 281 280 280 282 283 283 283 282 280 280 281
282 283 282 281 282 283 282 280 280 281 283 283 283 283 284 285 285 285 285 284 284 283 282 281 280 280 280 282 282 282 281 281 279 278 279 280 282 282 281 281 281 280 280
281 283 282 282 282 283 283 280 280 282 283 283 282 282 283 284 284 284 284 284 284 283 282 282 281 281 283 282 282 281 280 280 280 280 280 280 280 280 279 280 280 280 280
280 281 281 280 280 282 282 282 282 283 283 282 282 283 282 282 282 284 283 282 282 282 281 281 281 281 281 281 283 283 283 281 281 281 281 280 279 279 280 280 281 281 281
280 281 280 280 280 281 281 282 282 283 282 281 282 282 282 282 281 279 280 280 281 281 281 280 280 279 278 279 280 280 280 281 281 282 282 281 281 279 279 279 280 282 281
280 280 280 280 280 280 280 281 281 281 281 280 280 281 281 282 282 281 278 278 278 279 279 279 280 280 279 279 278 278 278 278 279 280 279 278 279 278 278 277 277 279 279

GFSMW_sfc_thetae_111.txt.gz
Theta_e
311 315 318 319 320 321 321 321 321 323 325 325 323 321 331 336 340 343 348 350 347 346 347 345 343 343 339 341 339 340 336 336 339 336 334 333 335 335 336 336 335 334 332
312 313 314 316 317 317 318 317 318 320 321 322 324 325 325 330 334 340 343 347 349 347 345 345 342 343 338 337 336 336 333 335 338 330 328 323 328 331 333 335 334 334 334
309 310 310 312 314 314 314 314 315 317 318 320 321 324 326 327 331 335 336 341 346 348 345 341 343 344 338 335 336 335 333 330 333 334 326 319 318 322 330 332 333 332 333
309 309 309 310 311 312 313 313 313 314 314 317 317 318 319 321 324 333 334 338 343 344 344 344 339 344 339 337 335 335 335 334 326 331 332 332 328 321 319 328 330 332 331
307 308 308 308 309 310 310 311 311 311 311 312 314 314 315 318 324 328 335 338 340 342 338 339 340 342 341 340 338 334 335 335 332 330 329 330 328 328 322 319 324 327 331
307 307 307 307 307 308 308 308 307 306 308 307 308 307 308 311 316 322 327 336 337 340 337 337 336 340 340 336 339 339 336 336 334 333 330 326 324 322 323 321 321 322 327
305 305 304 304 304 304 305 305 304 302 303 303 303 303 304 307 309 315 324 329 334 337 337 333 335 335 336 337 340 338 332 337 335 335 332 331 329 328 326 325 323 321 328
303 303 303 303 302 302 302 301 300 298 299 299 299 299 299 303 306 313 319 327 334 336 339 333 334 336 336 337 338 338 334 334 335 335 335 332 332 332 330 326 323 319 322
301 301 302 302 301 300 300 298 296 295 296 296 296 296 298 300 303 308 316 324 333 336 338 335 333 333 334 334 336 336 337 335 333 335 335 333 332 332 329 329 325 321 313
299 300 300 300 299 299 298 297 295 293 293 294 292 294 296 299 302 305 310 322 334 336 337 337 333 332 332 332 334 334 335 336 333 333 331 331 331 330 330 328 328 326 321
298 298 298 298 298 296 295 294 291 291 290 290 290 292 296 300 304 312 316 327 333 334 334 333 332 331 331 331 331 332 332 330 329 330 329 329 330 329 328 328 327 327 325
297 297 297 296 295 292 292 290 289 288 287 288 289 292 296 298 302 307 323 328 331 333 333 333 330 329 329 329 329 330 332 329 327 328 328 328 328 328 328 328 327 326 326
295 295 295 294 292 291 290 288 287 286 286 285 288 290 293 294 295 300 306 309 327 330 329 330 329 328 327 327 329 331 330 327 327 328 328 327 327 325 326 326 324 326 325
292 292 292 292 290 290 288 287 286 285 285 286 287 287 288 291 292 295 297 301 305 321 324 325 325 325 325 325 327 328 329 327 326 326 326 323 321 321 320 319 321 322 321
289 289 288 288 289 287 286 287 285 284 285 284 285 284 287 288 290 291 292 293 295 296 300 310 311 317 320 319 324 326 326 321 317 313 309 301 296 292 292 302 307 312 315
286 286 286 286 285 285 285 286 286 284 285 284 284 285 285 286 287 288 288 288 289 289 291 290 292 294 298 297 304 315 318 315 309 302 299 296 294 290 289 289 288 288 295
284 284 284 284 284 284 285 284 286 286 284 284 284 284 285 284 284 286 285 285 285 286 287 289 288 287 291 293 297 296 298 296 295 298 296 295 293 294 294 289 288 286 286
282 282 283 283 284 285 285 285 285 285 285 284 284 284 284 284 283 283 282 283 283 282 283 283 286 286 286 287 288 288 288 287 287 288 289 289 288 288 290 288 286 284 284
282 282 283 283 284 284 285 284 284 284 285 284 284 285 284 284 284 282 282 282 281 281 281 281 282 283 284 287 286 286 284 284 284 285 285 285 285 286 288 286 284 283 283
283 282 282 283 282 283 285 283 283 283 283 283 284 285 285 285 284 285 284 284 283 281 281 280 281 282 282 285 285 285 284 282 282 282 283 284 284 284 284 283 281 279 279
284 285 283 282 283 284 284 282 282 282 283 284 284 284 285 285 285 285 285 285 285 284 283 281 281 280 281 282 283 283 281 280 280 280 280 282 283 284 283 282 281 280 281
283 284 284 283 284 284 283 281 281 284 284 284 283 283 284 284 284 284 285 285 285 284 283 283 282 282 283 283 282 282 282 281 278 278 279 281 283 283 283 282 282 281 281
282 284 283 283 283 284 284 282 283 284 285 284 284 283 282 283 284 283 283 283 283 282 282 281 280 280 281 282 283 283 282 282 280 280 281 282 283 283 282 282 283 283 281
282 283 282 282 282 283 283 284 285 285 284 284 285 285 284 281 281 283 282 280 280 281 280 278 278 279 279 279 280 281 283 283 283 284 284 283 282 282 282 283 283 283 283
282 282 281 281 281 282 282 283 284 285 283 283 283 283 284 284 281 279 279 280 279 279 278 280 278 277 276 277 279 279 280 281 281 283 283 282 283 281 282 281 281 282 282
281 281 281 280 280 280 281 281 282 282 282 282 282 282 282 283 282 283 280 278 278 278 278 278 278 279 278 278 279 279 280 280 282 281 279 279 279 278 279 279 279 279 279

GFSMW_sfc_thetae_114.txt.gz
Theta_e
312 316 318 319 319 320 319 319 321 323 322 322 322 323 321 324 334 339 342 343 343 343 342 341 342 340 338 337 337 337 334 333 335 330 328 330 332 332 331 332 331 331 330
311 313 314 315 315 315 316 315 315 317 317 317 318 320 321 323 325 325 331 340 342 343 343 341 340 340 337 335 336 336 332 333 334 326 324 320 323 328 330 330 330 329 329
310 310 310 312 313 313 313 312 313 313 314 316 315 316 319 321 323 323 324 335 338 343 341 340 340 339 337 334 334 336 332 329 332 332 322 315 313 319 326 328 328 328 328
308 309 309 309 310 311 312 311 311 310 311 311 310 311 311 311 316 319 323 326 332 334 340 339 340 338 338 334 333 335 334 331 327 331 330 325 322 315 314 323 327 328 327
307 306 306 307 308 309 308 309 308 308 307 307 308 307 307 308 310 312 315 318 324 330 337 338 339 338 338 336 333 333 333 332 329 328 328 326 325 323 318 314 318 325 328
306 306 306 306 306 306 306 306 305 304 304 304 304 303 303 303 305 307 309 313 318 325 333 336 337 336 335 336 335 334 333 332 331 328 327 326 323 321 318 315 317 319 321
303 303 302 302 303 303 303 302 302 300 300 300 300 300 300 300 300 302 305 308 312 317 325 333 334 335 336 336 336 335 333 332 330 329 327 327 325 324 322 319 316 316 320
301 300 301 301 301 301 300 300 297 296 297 296 296 297 297 297 298 300 302 305 309 314 320 330 332 333 333 334 335 334 334 333 331 329 329 327 326 326 324 321 319 314 316
298 299 299 300 299 298 297 297 295 294 294 294 294 294 294 295 296 298 300 302 306 310 315 322 331 332 333 332 333 333 332 332 331 330 329 328 328 328 327 325 323 317 310
297 297 298 298 298 297 295 295 294 292 291 291 291 292 293 294 296 298 299 301 303 307 312 317 328 332 332 332 333 332 332 330 331 327 326 325 323 327 326 324 322 320 315
296 296 296 297 296 294 293 292 291 290 288 288 289 290 292 293 295 297 299 302 306 308 310 317 326 330 330 331 331 331 330 330 330 329 327 324 320 326 324 325 324 322 320
295 295 295 295 293 292 290 289 289 287 287 287 288 289 290 291 293 294 297 301 305 316 314 319 327 328 329 329 330 329 329 329 327 327 327 325 326 323 325 324 322 321 320
293 293 292 291 291 289 288 288 288 286 286 286 287 287 288 288 290 292 294 296 302 306 318 325 326 327 328 328 330 330 329 329 328 327 325 324 324 324 324 323 322 320 321
291 290 289 288 287 287 287 287 287 287 286 286 286 286 286 287 288 290 291 291 294 296 298 312 322 326 327 328 328 328 328 328 327 325 323 321 319 318 318 317 316 316 317
288 287 286 286 285 285 285 286 286 287 286 285 285 285 286 286 287 287 288 288 288 291 293 293 295 298 302 306 321 327 327 325 316 306 300 296 294 293 296 306 299 301 307
285 285 285 284 283 284 284 285 285 285 286 286 285 285 285 285 284 285 285 285 286 285 287 289 291 290 290 291 297 317 323 313 304 297 294 293 291 289 289 289 288 287 291
283 282 283 283 283 283 284 283 284 285 285 285 285 285 285 284 283 283 282 282 282 284 283 284 287 288 288 289 293 295 299 299 300 297 295 294 293 291 288 287 286 286 286
281 281 282 282 283 284 284 284 284 284 284 284 284 285 285 284 284 283 282 281 281 281 281 282 283 285 287 289 289 288 288 288 287 287 287 288 288 290 288 285 283 283 283
281 282 282 283 283 283 284 284 283 283 283 283 283 284 284 284 284 284 283 283 282 281 281 281 281 281 283 286 287 285 284 284 283 284 285 285 285 288 289 284 282 280 280
283 281 282 282 282 282 283 283 282 282 281 282 282 284 283 283 283 283 284 284 284 282 282 282 282 282 281 284 284 284 283 281 281 282 283 285 284 285 284 282 281 278 278
284 284 283 282 283 283 283 281 281 281 283 282 282 282 283 282 282 283 283 283 283 282 281 280 281 282 283 283 284 283 280 279 280 280 281 283 284 284 284 282 280 279 280
283 283 283 283 283 284 282 280 280 282 284 283 281 279 280 282 281 280 280 282 280 280 279 279 278 279 280 283 284 284 283 282 280 279 281 283 284 284 284 282 282 281 280
282 283 282 282 283 283 283 281 281 283 283 283 283 281 279 278 280 278 277 278 279 277 277 277 276 276 278 279 281 283 283 284 282 282 283 283 284 284 283 284 283 283 281
281 282 281 280 280 282 282 282 283 284 283 282 282 283 282 279 278 278 277 276 275 276 276 275 275 275 276 277 279 280 281 281 282 282 282 282 282 282 281 281 282 282 282
281 281 280 279 279 280 281 282 282 283 282 282 281 282 282 281 278 277 276 276 276 276 274 275 275 274 274 277 280 280 280 281 281 280 279 278 278 278 278 278 278 280 280
281 280 280 279 278 279 279 280 282 282 281 280 281 281 281 281 281 280 277 279 279 279 278 278 277 276 279 280 281 280 281 281 281 278 276 276 275 275 275 275 276 277 277

GFSMW_sfc_thetae_117.txt.gz
Theta_e
310 312 311 310 310 310 310 310 310 311 312 311 311 312 313 316 319 322 325 328 339 339 338 338 337 337 336 335 333 331 332 328 331 327 324 326 327 327 328 329 329 329 328
308 308 308 307 307 307 307 308 308 308 309 308 309 310 311 314 316 320 321 323 325 333 337 338 337 338 335 332 333 330 325 329 332 323 320 319 319 324 327 327 328 328 328
305 306 306 303 304 304 304 305 305 305 306 306 306 307 308 309 310 312 314 316 319 323 331 337 337 337 336 333 332 331 329 328 327 328 321 315 311 315 321 325 327 326 325
303 303 302 301 301 301 303 303 304 303 304 303 302 301 301 302 304 306 307 309 312 315 320 325 334 336 336 334 332 334 333 331 327 324 325 319 317 311 310 318 324 325 326
301 300 300 300 300 300 299 299 300 300 299 299 299 298 298 300 302 303 303 305 308 310 313 318 323 332 333 333 332 330 332 331 328 327 327 324 319 317 314 311 317 321 323
299 299 300 299 298 298 297 297 297 296 296 296 296 295 294 295 296 297 298 300 304 307 310 314 319 326 332 333 331 330 330 333 332 328 326 326 323 320 315 312 313 319 319
297 297 296 296 296 294 294 295 294 293 293 293 293 294 294 294 295 296 297 298 299 302 305 309 313 320 328 332 333 330 330 331 331 329 328 327 326 324 322 316 313 314 317
296 295 294 294 293 293 291 290 290 290 291 290 290 292 292 293 293 294 295 297 299 300 302 305 308 312 316 329 331 331 331 331 331 329 329 328 326 324 320 321 314 311 312
295 294 294 293 291 290 290 289 289 288 289 288 288 288 290 291 291 293 295 295 297 300 301 303 305 309 314 322 329 328 328 331 332 330 329 327 327 326 323 323 321 317 310
292 293 292 291 290 290 289 289 288 287 287 287 287 288 289 290 292 292 293 295 297 299 301 301 303 306 312 319 327 324 328 328 331 330 329 327 326 323 323 322 322 320 314
290 290 291 290 289 289 288 287 287 287 286 286 287 287 289 290 291 291 293 295 296 298 300 303 305 306 308 315 326 325 326 326 328 329 327 325 323 322 321 321 318 321 320
289 289 288 288 287 286 286 286 286 285 286 286 287 288 289 289 289 290 291 294 294 296 299 304 308 308 309 314 325 327 327 326 327 327 326 324 322 320 319 321 318 321 321
288 287 286 286 285 285 285 285 285 285 285 286 286 287 287 287 287 288 290 290 291 293 296 297 303 311 312 314 324 326 328 327 327 326 326 325 323 318 320 322 322 322 322
286 285 284 284 284 284 284 284 284 286 285 286 286 286 286 286 286 286 287 288 289 289 291 295 295 299 303 315 324 324 324 325 326 325 326 325 323 319 320 322 321 319 320
284 284 283 283 283 283 283 283 284 285 286 285 285 285 286 286 285 284 285 285 286 287 287 289 291 292 292 297 305 317 323 324 317 308 303 302 303 306 312 314 311 313 311
282 282 282 282 282 283 283 283 283 284 285 284 284 285 285 285 285 284 283 283 283 284 285 284 286 288 289 290 295 308 319 310 302 296 293 293 293 293 292 291 289 294 303
281 280 281 281 282 282 283 282 283 284 283 283 284 284 285 284 285 284 283 282 282 282 282 283 284 284 286 287 289 290 290 291 294 296 297 293 292 289 287 287 286 286 286
279 278 279 280 281 282 283 284 284 283 282 282 282 283 283 283 283 284 283 282 282 281 282 282 282 283 284 286 286 286 286 285 286 287 289 291 289 289 287 285 283 282 283
278 279 281 281 281 281 283 283 282 281 280 279 280 281 281 281 282 281 282 282 281 280 280 281 282 282 283 285 285 285 284 284 284 284 285 286 284 287 287 283 280 280 280
280 280 281 282 281 282 283 282 281 282 280 278 278 280 280 279 279 280 280 281 281 280 280 279 280 282 282 285 284 283 282 281 282 283 283 285 284 284 284 282 280 277 278
282 283 282 281 282 283 282 280 280 280 281 281 279 278 279 278 277 278 279 278 278 278 278 278 278 279 281 283 285 284 281 281 281 281 282 283 284 284 283 282 280 279 280
282 282 281 281 281 282 281 279 279 281 281 279 278 278 277 278 276 275 276 277 276 276 276 276 276 278 279 282 284 284 284 283 281 280 282 283 285 285 284 283 283 282 281
281 282 281 280 281 281 281 278 279 280 280 281 280 277 277 277 277 274 274 274 275 274 274 274 274 275 278 280 282 283 283 282 280 281 282 282 282 282 281 283 283 282 281
280 280 280 278 278 280 280 280 280 281 280 280 280 280 278 276 276 276 275 274 274 273 273 274 274 276 277 278 280 280 280 280 279 279 279 279 279 278 278 279 280 280 280
280 279 278 277 277 278 278 279 280 281 280 279 279 279 279 278 276 276 275 275 276 277 274 273 275 275 276 278 280 280 278 278 278 277 277 276 276 275 276 276 277 278 279
279 277 277 276 276 277 277 278 279 279 279 279 278 278 278 278 278 276 275 281 279 279 279 280 278 276 280 281 280 280 279 279 278 275 273 273 273 272 273 274 274 275 276

GFSMW_sfc_thetae_120.txt.gz
Theta_e
309 307 307 306 306 306 305 306 305 306 305 305 305 306 305 308 311 315 318 319 323 327 328 336 337 336 334 334 334 335 329 328 329 325 322 323 326 326 327 329 328 327 326
304 305 304 303 303 303 303 303 303 302 302 303 303 303 303 307 308 310 308 313 311 314 319 321 327 335 335 334 331 332 328 331 329 325 318 317 320 323 325 325 328 327 327
302 301 300 299 300 299 300 300 300 299 299 300 300 300 301 302 303 302 304 305 307 310 313 316 321 325 333 333 333 332 330 327 327 327 321 312 313 315 320 324 326 326 325
300 299 297 297 297 297 297 298 298 297 297 297 296 295 295 295 297 299 301 301 303 304 308 311 313 317 321 329 331 332 330 330 325 327 328 321 317 312 311 319 325 325 324
297 297 297 296 295 295 294 295 295 294 294 294 294 293 292 293 295 296 296 297 300 302 304 307 310 312 315 321 329 328 329 328 325 324 326 320 319 315 312 309 318 323 325
296 296 297 295 293 293 293 292 292 291 292 291 291 291 290 291 291 292 293 295 297 298 301 303 305 309 312 317 325 329 328 325 324 325 326 325 319 316 313 310 312 316 322
294 294 293 292 292 291 289 290 289 289 289 289 288 288 289 289 290 292 293 294 294 296 297 299 300 302 306 312 315 323 328 327 326 326 326 326 325 323 319 314 312 312 314
294 293 292 291 290 289 288 287 287 287 287 287 286 287 288 288 289 291 292 293 294 295 296 297 299 301 302 305 309 313 326 328 327 326 327 326 327 326 321 319 313 308 311
293 291 290 289 289 288 287 287 286 286 286 286 286 286 287 288 289 290 292 293 294 295 297 299 299 300 301 303 307 310 314 327 327 327 328 327 327 327 326 324 319 316 306
291 290 289 288 288 287 286 286 286 286 286 286 286 287 287 289 289 290 290 292 293 294 296 296 298 299 302 302 304 307 313 323 326 327 326 326 327 326 326 325 323 320 315
287 287 287 287 286 285 285 285 285 285 285 286 286 287 287 288 289 289 290 291 292 293 293 294 296 298 300 303 305 306 309 316 324 326 326 327 326 325 324 324 322 320 317
285 285 285 284 284 283 284 283 284 284 286 286 287 286 287 287 287 287 288 289 289 291 292 293 295 298 300 304 306 306 309 313 321 323 325 326 327 325 324 323 322 321 320
284 283 283 282 283 283 283 283 284 284 285 286 286 286 286 286 286 285 286 287 287 289 290 290 293 295 298 299 310 309 309 313 321 322 322 324 326 324 324 323 321 318 320
283 283 282 282 283 283 282 283 284 284 285 284 284 285 285 286 286 286 285 285 286 286 287 288 289 291 292 294 300 310 310 314 323 322 322 324 325 324 322 320 319 317 318
282 282 281 281 281 282 282 283 283 283 284 284 283 283 285 285 286 285 285 285 285 285 285 286 286 288 288 290 292 302 314 316 320 316 317 320 321 313 316 319 319 319 318
281 281 281 281 281 281 282 282 282 282 283 282 282 282 283 284 284 284 284 283 282 283 284 284 284 284 287 287 291 297 298 299 298 296 296 297 298 301 299 296 294 309 317
279 279 279 279 280 280 281 281 281 282 281 281 281 281 281 281 282 282 282 281 281 281 281 282 284 284 284 287 287 288 288 289 289 292 294 291 291 292 293 291 290 289 289
278 278 278 278 279 280 281 282 282 280 279 278 279 280 279 278 280 280 280 280 280 279 279 280 282 283 284 285 286 286 285 285 285 285 285 287 288 287 287 288 286 285 284
277 277 277 276 279 280 281 281 282 282 279 277 277 277 278 276 277 277 278 278 278 278 279 279 280 281 283 286 285 285 284 283 283 283 284 285 284 286 286 283 283 281 280
275 276 279 281 282 282 282 281 281 281 279 278 277 277 277 275 275 275 276 277 277 277 278 278 279 282 282 285 285 283 283 281 282 283 283 285 284 284 284 282 280 277 278
280 282 281 280 280 281 281 279 279 278 279 279 278 277 277 276 275 275 275 275 276 276 277 277 278 279 282 283 284 284 281 281 280 280 281 283 285 285 284 283 280 280 281
282 281 280 279 280 280 279 278 278 279 280 279 277 277 276 277 276 275 275 275 274 275 276 276 277 278 279 282 283 282 282 281 279 278 279 281 283 283 284 283 283 283 281
280 280 279 279 279 280 280 277 278 279 279 279 278 275 276 276 276 275 275 275 275 274 274 275 276 276 278 279 280 281 280 280 278 279 280 280 280 280 279 281 281 281 280
279 279 278 277 277 278 279 279 280 280 279 279 279 279 278 276 277 276 275 275 275 275 274 274 275 276 276 277 278 277 277 277 277 276 276 277 278 277 277 277 278 279 279
279 278 277 276 276 277 277 278 279 280 279 278 278 278 278 278 275 276 275 275 276 277 276 274 274 275 275 276 278 277 276 275 275 275 274 273 273 273 274 274 275 276 277
277 276 276 275 275 276 275 276 278 279 278 278 277 276 277 276 276 275 274 278 278 279 279 280 277 275 278 279 279 279 278 277 276 273 271 271 272 271 272 272 272 273 274

GFSMW_sfc_thetae_123.txt.gz
Theta_e
303 303 302 302 302 302 301 301 300 300 301 301 300 302 300 302 304 309 308 313 310 312 315 321 323 329 328 328 332 333 331 330 327 325 324 324 325 328 330 331 329 328 326
299 300 299 298 298 298 298 298 298 297 298 298 298 298 298 302 302 302 303 306 305 309 310 312 317 321 323 329 330 332 330 328 328 324 320 319 322 324 326 328 327 327 327
296 296 296 295 294 293 294 295 294 294 295 295 296 296 297 297 298 296 297 300 301 303 305 308 310 312 317 319 323 329 327 326 327 329 322 314 314 317 321 325 327 326 326
294 294 294 293 294 293 293 292 293 293 293 293 292 291 291 290 293 294 295 296 298 300 303 305 306 308 310 313 317 325 328 325 321 327 327 325 319 314 312 321 325 325 326
294 293 292 292 292 292 291 290 291 290 291 290 290 289 288 290 291 292 292 294 296 297 299 301 302 303 306 309 313 316 322 329 325 324 322 322 321 319 314 312 318 324 326
293 293 293 294 292 291 290 290 289 289 288 288 287 287 286 286 287 289 290 292 294 295 296 298 298 299 301 303 307 312 315 325 328 325 323 320 318 317 316 314 314 318 322
292 291 290 290 290 289 288 288 288 287 287 286 286 286 286 286 287 288 289 290 292 294 295 295 296 297 299 300 301 303 306 310 324 325 322 322 321 320 320 318 316 314 316
293 291 290 289 288 288 287 286 286 286 287 287 287 287 288 288 289 289 289 290 291 293 295 295 297 298 300 301 301 301 303 308 312 325 323 323 323 324 321 319 317 311 312
291 290 289 288 287 287 287 286 285 286 286 287 287 287 287 287 288 289 290 290 292 293 294 295 296 297 298 300 301 300 301 305 309 314 325 323 324 325 324 324 320 318 312
290 288 287 286 286 285 286 286 286 286 286 287 287 286 287 287 288 289 288 289 290 291 292 293 293 294 296 298 300 301 302 303 306 312 321 324 325 324 325 324 322 322 319
286 285 285 285 285 284 283 284 285 285 285 286 287 286 287 287 287 286 287 287 288 289 290 291 292 292 293 296 298 300 301 302 305 309 314 323 325 324 324 324 323 321 321
283 282 283 283 283 282 283 284 284 284 285 285 285 286 286 287 286 286 286 287 287 288 288 289 290 291 293 295 297 298 302 305 306 307 309 318 324 322 324 323 323 322 321
282 281 282 282 282 282 283 283 284 284 284 284 284 284 285 285 285 285 285 285 285 286 287 288 288 288 290 291 293 295 298 301 306 308 309 314 322 322 321 322 322 323 321
282 282 282 282 282 283 283 283 283 283 283 283 282 282 282 284 283 284 284 284 284 283 284 286 287 287 288 289 290 292 295 299 309 310 311 314 320 321 322 320 322 322 321
281 281 281 281 281 281 282 282 282 282 282 281 280 280 281 281 282 282 282 282 282 282 283 283 285 286 286 287 288 292 295 297 309 308 305 302 303 305 316 321 322 320 318
280 281 280 280 280 281 280 280 279 280 279 279 279 279 280 280 280 280 280 280 281 281 281 281 283 284 285 287 288 289 292 293 294 294 292 292 292 296 297 296 297 307 317
279 279 279 280 280 280 281 277 276 277 277 276 277 277 278 278 278 279 278 278 278 279 279 280 282 283 284 286 287 286 285 286 286 287 288 288 288 291 293 292 290 288 288
278 278 279 279 277 275 276 278 277 277 276 275 275 276 276 276 276 276 276 277 277 277 278 279 280 281 283 285 286 285 284 284 284 284 285 285 285 286 287 285 284 283 285
275 277 278 274 274 277 280 280 280 279 277 276 275 276 275 274 274 274 274 276 276 277 278 279 279 280 281 285 284 283 282 282 282 283 284 284 284 286 288 285 282 282 281
277 278 278 278 279 280 281 280 279 279 277 276 276 276 276 275 274 274 274 275 276 277 278 278 278 280 279 284 283 281 281 279 280 281 282 284 284 285 284 282 282 280 280
280 281 280 278 279 280 280 278 278 277 278 278 277 276 276 276 275 275 276 275 275 276 277 277 277 277 279 279 282 282 279 278 278 278 279 281 284 284 284 283 281 280 282
281 280 279 279 280 280 279 277 277 278 279 277 277 276 276 276 276 275 276 276 275 274 275 276 276 277 277 279 280 280 279 279 276 276 278 279 282 282 282 281 282 282 281
279 280 278 278 278 279 279 277 277 279 278 278 277 275 276 277 275 274 275 276 276 273 273 274 274 275 276 277 279 279 278 277 274 276 277 278 278 279 278 280 280 279 278
278 279 278 277 276 278 278 279 279 279 278 278 278 278 277 276 275 275 275 275 275 274 273 272 273 274 275 276 276 275 275 275 274 274 274 275 275 275 275 275 276 276 276
278 278 277 276 276 276 277 277 278 279 278 278 277 277 277 276 275 274 274 275 276 277 274 272 272 272 272 274 277 276 274 274 273 273 272 271 272 271 272 272 273 274 274
277 276 276 275 275 275 275 276 277 277 277 276 276 275 275 274 274 273 272 277 277 278 278 277 276 273 276 276 276 276 276 275 275 271 269 269 269 269 269 269 270 271 271

GFSMW_sfc_thetae_126.txt.gz
Theta_e
297 297 296 295 295 295 295 294 294 294 295 295 295 299 297 301 303 302 305 304 304 307 307 309 314 319 323 323 324 325 325 328 331 328 326 325 328 328 330 330 330 330 329
293 294 294 293 292 291 292 293 292 292 292 293 293 294 296 298 300 297 299 300 300 303 303 305 308 311 314 317 325 323 322 323 327 325 321 319 320 325 327 327 327 328 328
291 291 291 290 290 290 290 291 291 290 291 291 291 292 294 294 295 293 294 296 298 299 302 303 304 306 309 311 315 318 323 321 326 327 323 314 314 317 322 325 326 328 327
292 292 291 291 290 289 290 290 291 290 290 289 288 287 287 287 290 291 292 293 296 298 299 300 301 302 305 306 310 315 318 321 319 321 327 327 320 314 312 318 322 326 326
292 291 292 292 291 291 290 289 289 289 288 288 287 286 285 286 288 289 289 291 294 295 297 298 298 298 300 301 303 305 309 315 317 323 322 324 322 321 314 310 313 319 323
292 292 292 292 290 290 289 289 288 288 288 288 288 287 286 286 287 288 289 291 292 293 295 296 296 296 297 298 300 302 303 306 312 317 322 321 320 318 317 313 312 313 317
293 293 291 290 290 288 288 287 287 286 287 287 287 287 287 287 287 288 289 289 290 291 293 294 295 296 297 299 300 300 300 301 303 307 313 325 323 322 319 316 314 312 315
293 291 290 288 287 286 286 286 286 286 286 287 287 288 288 287 288 288 288 289 290 291 292 294 295 295 297 298 299 300 301 301 302 304 307 317 324 323 321 318 315 312 313
291 288 288 286 285 284 284 284 284 285 285 286 286 287 287 287 287 287 288 289 289 290 291 291 292 294 295 296 297 298 300 301 301 303 306 309 322 323 322 321 319 315 310
289 286 285 285 285 284 284 285 285 285 285 286 286 287 287 287 287 287 287 287 288 288 289 289 291 292 293 294 295 296 299 300 301 302 304 308 313 324 324 323 321 319 316
283 282 283 283 283 283 284 284 285 285 285 285 285 285 286 286 287 286 286 286 287 287 288 289 289 290 291 293 294 296 297 298 300 302 303 306 311 317 323 324 322 321 320
281 281 281 282 282 283 284 284 284 284 284 284 284 284 285 285 284 284 285 285 285 286 286 287 288 288 289 290 291 292 293 295 298 301 302 304 308 311 319 323 322 322 321
280 280 280 282 282 283 283 283 283 283 284 284 282 282 282 283 282 283 283 284 284 284 284 285 286 287 287 288 289 290 290 292 295 300 305 306 307 308 313 319 321 322 321
281 281 281 281 282 282 282 281 281 282 282 282 282 281 280 281 281 281 282 282 282 282 283 284 285 286 287 287 288 289 290 291 293 297 300 304 307 310 311 316 319 321 320
281 281 280 280 281 281 279 279 278 279 279 279 279 278 280 280 280 280 280 280 280 281 282 282 284 284 285 286 287 288 290 291 294 296 299 300 301 299 300 313 317 319 319
281 280 279 279 279 279 280 280 278 277 278 276 276 277 278 278 278 278 278 279 279 280 280 280 281 282 284 285 286 286 286 287 287 288 289 290 291 293 290 291 290 301 318
279 279 277 277 277 277 279 279 278 278 277 275 276 276 276 276 276 277 277 277 278 279 279 278 279 279 282 285 285 284 283 284 284 285 285 287 288 288 288 286 287 287 288
278 277 275 275 275 276 278 280 280 278 276 276 276 276 275 275 275 275 275 275 277 277 277 277 278 278 281 284 283 283 281 281 282 283 284 284 284 286 286 285 284 284 284
272 274 276 275 276 278 280 281 279 278 277 275 275 275 275 275 275 275 274 275 275 276 277 277 277 277 278 283 282 280 279 279 279 281 282 282 283 285 286 285 285 283 283
276 277 278 279 280 279 281 279 279 277 275 275 275 276 276 275 274 275 275 275 275 276 277 276 277 278 277 281 281 279 277 276 277 278 280 282 282 284 283 281 281 280 280
278 280 279 278 279 280 280 278 277 277 277 277 276 276 276 275 274 275 276 275 274 274 275 275 276 276 277 277 280 280 276 275 275 276 276 278 281 282 282 281 280 280 281
279 280 279 279 280 280 279 277 276 278 278 277 276 276 276 275 275 275 276 275 273 272 272 273 274 275 276 279 278 279 278 276 274 274 275 277 279 279 280 278 280 280 279
278 280 279 278 279 279 279 276 277 279 279 278 277 276 275 275 275 274 274 275 274 272 271 271 271 272 274 275 277 277 277 276 273 274 275 276 276 276 275 277 277 276 276
278 278 278 277 276 278 278 279 279 279 278 277 277 277 275 274 273 275 275 274 273 272 271 270 271 271 272 273 274 274 273 273 272 272 272 272 273 272 272 272 273 273 273
278 278 277 276 276 276 277 277 278 279 277 276 276 276 275 274 273 272 274 274 275 275 273 271 271 271 270 272 275 274 272 271 271 270 269 269 269 269 269 269 270 270 271
277 276 276 276 275 275 275 276 277 277 276 275 275 274 274 273 273 271 271 276 276 277 277 277 275 273 275 275 275 274 274 273 272 267 265 265 266 266 267 267 267 267 268

GFSMW_sfc_thetae_132.txt.gz
Theta_e
302 302 303 304 305 304 304 303 303 304 304 305 305 307 307 311 313 310 310 310 311 313 314 315 317 319 321 322 324 326 331 335 334 330 330 328 327 339 340 341 341 341 343
301 301 302 304 304 303 303 303 303 303 303 303 304 304 305 308 308 307 308 308 308 310 310 311 313 315 315 317 321 323 320 326 331 327 327 321 325 335 337 340 339 341 341
302 302 302 302 301 300 300 300 300 301 301 302 303 304 305 305 305 304 304 305 306 307 308 309 310 311 312 312 315 318 319 317 321 327 325 320 319 326 336 335 337 339 338
301 301 302 301 301 301 301 301 300 300 300 301 300 300 300 299 301 302 302 303 305 304 305 306 306 306 308 309 311 313 314 313 312 318 323 328 330 322 321 328 332 335 332
302 301 302 302 301 301 300 300 300 299 298 299 299 299 298 299 300 300 300 302 302 303 302 302 301 302 303 304 304 306 309 312 312 314 315 317 327 331 324 318 324 327 328
302 303 302 301 299 299 299 299 298 298 298 298 298 297 296 296 296 296 296 297 299 300 301 299 299 298 298 299 300 301 303 303 304 309 312 312 312 320 323 321 322 322 326
303 301 300 299 297 297 298 297 297 296 297 296 295 296 294 295 294 293 293 294 295 296 297 296 296 296 297 297 298 299 299 300 301 303 305 311 314 314 313 321 323 323 326
301 300 298 297 296 296 296 296 295 294 294 294 293 293 292 292 292 291 291 291 291 292 293 293 294 294 295 295 296 296 297 298 300 301 302 302 307 313 314 311 318 322 323
298 298 297 296 295 295 294 294 293 293 292 292 292 291 291 291 290 290 291 290 290 290 291 292 292 292 293 293 293 294 295 296 297 299 301 302 303 307 312 314 314 320 317
296 296 295 294 294 294 294 294 293 292 291 291 291 290 290 290 289 289 288 288 288 289 289 289 290 291 291 292 292 292 293 293 294 296 298 301 303 304 306 311 315 320 320
297 293 294 293 293 293 293 292 291 290 290 291 291 290 289 290 289 288 288 287 288 288 288 288 289 289 290 290 290 290 290 291 293 295 297 298 301 302 304 306 312 317 323
295 292 291 292 292 291 291 291 291 290 289 290 290 290 289 288 288 287 287 287 287 287 287 287 287 288 288 289 288 288 289 290 290 292 293 294 297 298 303 304 305 313 319
293 290 290 291 290 290 289 289 290 290 290 289 289 289 288 286 285 286 286 286 286 286 286 287 286 287 287 287 287 287 286 287 288 290 292 293 296 297 300 302 304 307 314
291 291 291 290 289 288 288 287 286 287 287 287 287 286 286 285 285 285 285 285 286 285 285 285 286 286 286 286 286 286 285 284 285 287 289 293 294 295 298 298 304 307 308
290 290 287 288 288 288 286 286 286 285 285 284 283 283 284 285 285 285 284 285 285 284 284 284 284 285 285 285 284 285 285 284 283 284 285 287 288 290 290 295 300 303 307
288 286 286 287 286 285 285 284 283 283 284 283 281 281 282 282 282 283 283 284 284 284 283 283 283 283 284 283 283 283 284 283 281 281 282 284 285 288 288 288 287 288 291
285 285 285 286 285 285 284 283 282 283 282 281 281 281 281 281 281 281 282 282 282 283 282 281 282 282 282 282 282 282 282 281 280 280 280 281 283 284 285 285 285 285 286
286 285 285 284 284 285 284 283 282 281 281 281 280 280 280 279 281 280 280 281 283 282 281 280 281 281 281 281 280 280 280 280 278 279 280 280 280 281 281 282 282 282 283
285 283 284 284 283 283 283 282 281 281 280 279 280 280 279 279 280 279 280 281 281 281 280 280 279 279 279 279 279 279 279 278 277 278 278 279 279 281 282 279 279 279 280
283 282 283 283 283 283 284 282 280 279 278 279 279 280 280 280 279 280 280 281 281 280 281 280 279 278 278 279 278 277 278 276 276 277 277 278 278 279 280 278 278 277 279
282 284 283 282 282 284 283 281 280 278 279 280 279 279 281 280 281 281 281 280 280 280 279 279 280 279 278 278 278 277 276 276 274 275 274 276 277 277 278 278 277 277 279
282 284 283 282 282 283 282 280 280 281 281 279 279 279 279 281 281 281 281 281 280 279 279 278 279 280 279 277 277 276 275 275 275 273 275 275 276 276 276 275 276 277 278
283 284 283 282 283 283 283 280 281 282 281 280 279 278 279 280 281 280 280 281 280 279 278 278 277 277 278 279 277 276 275 275 274 276 274 274 274 274 275 274 274 275 276
282 283 282 281 281 283 283 283 282 282 281 279 279 279 278 279 280 281 280 279 279 278 277 276 276 276 276 276 277 277 276 274 275 275 275 274 275 274 274 275 275 275 275
282 282 282 282 282 282 282 282 282 281 280 278 278 278 278 278 278 278 278 278 277 277 276 277 276 274 274 275 275 275 274 274 274 275 275 274 274 274 273 273 274 274 274
282 282 282 281 281 281 280 281 282 281 279 278 278 278 278 278 278 277 276 275 275 275 275 275 276 276 274 274 274 274 274 274 274 274 273 273 273 272 272 272 272 273 272

GFSMW_sfc_thetae_135.txt.gz
Theta_e
306 307 308 309 309 309 308 307 307 308 308 308 307 308 308 312 312 312 312 312 312 313 314 315 316 318 319 320 323 325 326 326 334 329 330 334 337 337 339 344 342 340 342
305 306 307 308 307 306 306 306 306 306 306 306 307 308 308 309 310 309 310 310 310 311 310 312 312 314 314 316 318 320 320 322 326 324 324 321 327 333 336 334 330 328 337
306 306 306 305 306 305 306 306 306 305 305 306 307 307 308 308 307 306 307 307 308 309 309 309 309 309 310 311 313 315 316 315 319 323 319 317 316 323 331 327 330 329 336
307 306 306 306 306 306 306 305 304 303 303 305 304 304 303 302 303 304 305 305 307 306 307 307 306 305 307 307 308 310 311 312 311 316 318 322 323 316 318 330 332 335 335
306 306 306 306 305 304 304 304 304 303 303 303 302 302 301 301 302 302 302 303 303 304 305 305 303 302 302 303 303 304 305 306 306 309 312 315 317 319 321 317 323 329 334
306 307 306 305 303 303 303 303 302 301 302 301 300 300 298 298 298 298 298 299 300 300 301 299 298 297 298 299 299 300 300 300 301 304 306 307 310 311 316 317 320 322 326
307 306 305 303 301 301 302 301 300 299 300 299 299 298 297 297 296 295 294 294 295 295 295 295 294 295 295 296 297 296 297 298 298 299 300 304 307 311 313 314 312 315 324
306 305 304 302 300 300 300 300 299 298 298 297 297 297 296 295 294 293 292 292 291 292 293 292 293 293 293 294 294 295 295 296 298 297 299 300 301 304 308 310 314 309 312
304 304 302 301 299 299 299 299 298 297 297 296 296 296 295 293 292 292 292 291 291 291 291 291 291 291 292 292 293 293 293 294 295 296 297 298 300 302 304 308 311 311 305
302 302 301 299 299 299 299 298 297 296 296 297 296 295 294 293 292 291 289 289 289 290 289 289 290 290 291 291 291 291 292 292 293 294 295 296 298 300 302 303 306 310 310
301 301 300 299 298 298 297 296 296 295 295 295 295 294 293 292 291 290 289 288 289 289 289 289 289 289 289 289 289 289 289 289 290 291 293 294 296 297 299 302 303 304 308
304 301 299 297 297 296 296 296 295 294 293 294 294 292 292 291 290 288 289 289 288 289 288 288 288 288 288 287 287 287 287 287 286 287 289 291 292 296 298 299 300 302 305
301 298 297 296 296 294 294 294 293 292 293 292 292 291 290 290 289 288 288 288 287 287 287 287 286 286 286 285 286 287 286 285 286 285 285 287 288 292 295 297 300 301 305
298 297 296 296 294 293 292 290 289 290 290 289 288 288 288 288 288 288 287 287 287 286 285 285 285 285 285 284 284 286 285 284 284 285 285 285 285 289 290 293 296 299 301
297 296 295 294 293 291 290 289 288 288 289 287 286 286 287 286 286 286 287 287 287 286 284 284 284 284 284 284 283 284 283 282 282 283 284 284 285 288 288 289 288 292 297
296 294 292 292 289 287 288 287 286 286 287 285 283 283 284 284 283 284 285 285 285 285 283 282 283 282 282 282 282 283 282 281 280 280 281 282 282 283 285 286 286 285 286
293 290 289 288 287 287 287 285 285 286 284 283 282 282 282 282 282 283 283 283 283 283 282 282 282 281 281 281 281 281 282 281 279 279 279 280 281 281 282 283 283 283 285
290 288 287 286 287 287 285 285 284 283 283 282 281 281 281 281 282 282 282 283 284 282 282 281 281 281 280 280 280 280 281 280 279 278 278 277 278 280 280 281 281 281 282
287 287 287 285 286 284 284 283 283 283 282 281 281 281 281 281 281 281 281 282 283 283 282 281 280 279 279 279 279 279 279 278 277 277 277 277 277 279 280 278 278 279 280
285 284 285 284 283 284 284 282 281 280 279 280 281 282 282 281 280 281 281 283 284 282 283 282 281 280 279 279 278 278 279 277 276 276 276 277 277 278 278 276 276 276 278
284 284 284 283 284 285 284 281 280 279 280 281 281 281 282 282 283 282 283 283 283 283 282 281 281 280 279 278 278 278 277 277 276 275 275 276 277 277 277 277 276 276 278
283 284 283 283 283 285 283 281 280 281 281 281 280 281 281 283 283 283 284 283 283 281 281 281 280 280 279 278 278 277 277 277 276 275 275 276 277 277 277 276 276 277 277
284 286 284 283 284 285 284 281 282 283 282 281 280 280 281 282 282 281 281 281 282 281 280 279 278 278 278 278 277 277 277 277 277 278 276 276 276 276 276 276 276 275 275
285 285 283 283 283 285 284 283 283 283 282 280 280 280 280 280 281 281 280 279 278 279 278 277 276 276 276 276 277 277 278 276 278 278 277 276 276 275 275 275 275 275 275
284 284 283 283 284 285 284 284 284 283 281 281 280 279 279 279 278 277 277 277 276 275 275 275 276 273 272 274 275 276 276 277 277 278 278 276 275 274 274 274 274 274 274
284 283 284 284 283 284 283 284 283 283 280 279 279 280 280 279 280 279 276 275 275 274 274 275 274 274 273 274 274 275 275 275 275 275 274 274 274 274 273 273 273 273 272